GEFSMW_500_meanwind_072.txt.gz
Wind_Speed
7 10 13 15 20 20 21 22 21 19 16 13 11 9 8 7 6 5 4 3 2 1 1 0 1 1 2 2 2 2 3 3 3 3 3 4 5 6 8 9 10 11 12
3 7 11 14 17 19 19 19 18 17 15 13 10 9 9 8 6 5 4 3 2 1 1 1 1 1 2 2 2 3 3 3 3 3 3 4 5 6 7 8 9 11 12
1 3 8 11 14 16 17 17 16 16 14 12 10 10 9 8 6 5 4 3 3 2 1 1 1 1 2 2 3 3 3 3 3 3 4 5 5 6 7 8 9 10 11
1 1 5 9 13 15 15 15 15 15 14 12 11 10 9 8 7 6 5 4 3 2 2 1 1 1 1 2 3 3 4 4 4 4 5 6 7 8 8 9 10 11 12
3 2 4 8 11 12 13 14 14 13 12 12 10 10 9 8 7 6 5 4 4 3 3 2 2 1 1 2 3 4 4 5 5 6 6 7 8 9 10 10 11 12 13
3 3 3 6 10 12 13 13 13 12 12 11 10 10 9 8 7 6 6 5 5 4 4 4 4 3 3 4 4 5 6 7 7 8 9 9 10 10 11 12 13 13 14
4 3 4 6 8 10 12 12 12 12 11 10 10 9 8 8 7 7 6 6 6 6 6 6 6 6 6 7 7 8 8 9 10 11 11 12 12 13 13 14 15 15 16
4 2 3 4 7 8 10 11 11 11 10 10 9 9 8 7 7 7 7 7 7 8 8 8 9 9 9 10 10 11 11 12 12 13 13 14 15 15 15 16 17 17 18
3 2 1 2 4 6 8 9 10 10 10 10 9 9 8 8 8 8 8 8 9 9 10 10 11 12 12 13 13 14 15 15 15 16 16 17 17 17 18 18 19 19 20
2 1 1 3 4 6 7 8 9 10 10 10 10 10 10 10 10 10 10 11 11 12 13 13 14 15 15 16 16 17 17 18 18 19 19 19 19 20 20 21 21 22 22
5 4 4 4 5 7 8 9 10 10 11 11 12 12 12 13 13 13 14 14 15 16 16 17 17 18 18 19 20 20 21 21 21 21 21 21 22 22 22 23 23 24 24
8 7 7 7 7 8 9 10 11 12 13 13 14 15 15 16 16 17 17 18 19 20 20 21 21 21 22 22 23 23 23 23 23 24 24 24 24 24 25 25 25 26 26
10 10 10 10 10 10 11 12 13 14 15 16 17 17 18 19 20 21 21 22 23 23 24 24 24 24 25 25 25 25 26 26 26 26 26 27 27 27 27 27 28 28 28
12 12 12 13 13 13 13 14 15 16 17 18 19 20 21 21 22 23 24 25 26 27 27 27 27 27 27 28 28 28 28 29 29 29 29 29 29 30 30 30 30 30 30
14 14 14 15 15 16 16 16 17 17 18 19 20 21 22 23 24 26 27 28 28 29 29 29 29 29 29 30 30 30 31 32 32 32 32 32 32 32 32 32 33 33 33
16 17 17 17 18 19 20 20 20 20 21 22 23 23 24 25 26 28 29 29 30 31 31 31 31 31 31 32 32 33 34 34 34 34 35 35 35 35 35 36 36 36 36
20 20 20 20 21 22 23 23 23 23 24 24 26 27 27 28 29 30 31 32 32 33 33 33 34 34 34 35 36 37 38 37 36 37 38 38 39 39 39 39 39 39 39
22 23 24 24 25 25 25 26 26 26 27 28 29 30 31 31 32 33 33 35 35 36 36 36 37 37 37 39 40 42 42 41 40 41 41 41 42 43 43 44 43 43 42
25 26 27 28 29 29 29 29 30 30 31 31 32 32 33 34 35 36 36 37 38 38 39 40 41 41 42 43 44 45 46 46 45 45 45 46 46 46 47 48 48 46 46
27 29 30 31 32 31 32 32 33 34 34 34 34 34 35 36 37 38 39 40 40 41 42 43 44 45 46 47 48 49 50 50 50 50 50 50 49 50 50 52 52 50 49
27 29 30 32 33 33 33 32 33 35 36 37 37 37 38 38 40 41 42 43 44 44 45 46 47 49 49 50 51 52 53 53 54 54 54 54 53 53 54 55 55 54 53
28 30 31 31 32 32 33 34 35 36 37 38 39 39 40 41 42 44 45 46 46 47 48 49 50 52 52 53 54 55 56 56 57 57 57 58 58 58 58 58 58 58 58
29 31 32 33 32 32 33 34 35 36 37 39 40 40 42 43 44 45 46 47 48 49 50 52 53 54 55 56 57 58 59 60 61 61 61 61 62 62 62 62 62 62 62
29 30 31 31 31 32 33 34 35 36 38 40 40 42 43 44 45 46 48 49 50 51 52 54 55 57 58 59 60 61 62 63 64 64 65 65 65 66 66 66 65 64 64
27 26 27 28 30 32 33 34 35 36 38 39 41 42 44 45 46 48 49 51 52 54 56 57 59 60 61 62 64 65 65 67 68 68 69 69 69 69 69 68 67 66 66
28 28 29 30 32 33 34 35 36 38 39 41 42 44 45 47 48 50 52 54 56 57 59 61 63 64 66 67 68 69 70 71 72 72 71 71 71 70 69 68 67 66 65

GEFSMW_500_meanwind_078.txt.gz
Wind_Speed
8 9 11 13 16 18 20 19 19 19 18 16 15 13 12 11 9 8 7 5 4 3 2 1 1 1 2 2 2 3 3 3 3 3 3 3 3 4 5 5 6 6 6
7 8 9 11 14 17 20 19 18 18 17 16 14 13 12 10 9 8 7 6 5 3 2 2 2 2 3 3 3 3 3 3 4 4 4 4 4 4 5 6 6 7 7
8 7 7 9 12 15 17 18 19 17 17 16 14 13 11 10 9 8 7 7 6 4 3 2 2 2 2 2 2 3 3 4 4 4 4 4 5 6 6 6 7 7 8
10 7 5 4 7 11 14 16 17 16 15 14 14 13 11 11 10 9 8 7 6 5 4 3 3 2 1 1 1 2 3 4 4 5 5 6 6 7 7 8 8 8 9
9 7 4 1 5 8 11 14 16 15 15 15 14 13 12 12 10 9 9 8 7 6 5 4 3 2 1 1 2 2 3 4 5 6 7 8 8 8 8 8 9 10 10
8 6 5 2 2 5 9 12 14 14 14 14 13 13 13 11 10 10 9 8 8 7 6 5 5 4 4 3 4 4 5 6 7 8 9 9 10 10 10 10 11 11 11
6 5 4 3 1 3 7 10 13 13 13 13 13 13 12 11 11 11 10 9 9 8 8 7 7 6 6 6 7 7 8 8 9 10 10 11 12 12 13 13 13 13 14
6 5 3 3 2 4 7 9 11 12 12 12 12 12 12 11 11 11 11 10 10 9 9 9 8 9 9 9 10 10 11 12 12 13 14 14 15 16 16 16 16 16 16
6 5 4 2 2 3 5 8 9 10 10 10 10 11 11 11 12 12 12 11 11 11 11 11 11 11 11 12 13 14 14 15 16 17 17 18 19 19 20 20 20 20 20
6 5 4 2 1 2 3 6 7 8 9 10 10 11 12 12 13 13 13 13 13 13 13 13 13 14 14 15 16 17 18 19 19 20 21 21 22 22 22 23 23 23 23
7 5 4 3 1 1 2 3 5 7 8 10 11 12 12 13 14 14 14 14 15 15 15 15 16 16 17 18 19 20 21 22 22 23 23 24 24 25 25 25 25 26 26
9 7 6 6 5 5 5 6 7 8 10 11 12 13 14 15 15 15 16 16 17 17 18 18 19 19 20 21 22 23 24 25 25 25 26 26 27 27 28 28 28 29 29
10 9 9 9 8 7 8 8 9 10 11 12 13 14 15 15 16 17 18 19 20 20 21 21 22 22 23 24 25 26 26 27 27 28 28 28 29 30 30 30 31 32 32
13 12 11 11 11 10 11 11 12 13 13 14 15 16 16 17 18 19 20 21 22 23 23 24 24 25 26 27 28 29 29 30 30 30 30 31 32 32 33 33 34 35 35
14 14 14 13 12 13 14 15 15 15 16 17 18 19 19 20 21 22 22 23 24 25 25 26 27 28 28 29 30 31 32 32 32 33 33 33 34 35 36 37 37 38 38
16 16 16 16 16 16 16 16 17 19 20 20 21 21 22 23 23 24 25 25 26 26 27 29 30 30 31 32 33 34 34 35 35 35 36 36 36 37 38 39 40 41 41
19 20 19 19 19 19 19 20 20 21 23 24 24 25 25 26 25 26 27 28 29 30 30 31 32 32 33 35 35 36 37 37 38 37 38 38 39 40 40 41 42 43 44
22 22 22 22 22 22 22 23 23 25 26 27 27 28 28 29 30 30 31 32 33 33 33 34 34 34 35 36 36 38 39 40 40 40 41 42 42 43 44 45 45 45 45
22 23 23 23 24 24 26 26 27 28 29 30 32 32 32 33 34 34 35 35 35 36 36 36 37 38 38 39 39 40 41 42 43 44 44 45 46 46 47 48 49 49 49
23 23 25 26 26 27 28 28 30 31 32 34 35 35 36 36 36 36 37 38 38 39 39 40 41 41 42 42 42 42 43 44 45 46 46 48 49 50 51 51 52 52 52
24 25 25 27 28 29 30 31 32 34 35 36 36 37 37 37 37 38 38 38 39 40 41 42 42 43 43 43 44 45 46 47 48 49 50 51 52 53 54 55 56 56 57
24 25 27 28 29 30 32 33 35 36 37 37 37 38 39 39 39 39 39 39 41 41 42 42 43 44 45 46 47 48 49 50 51 53 54 55 57 58 59 60 61 61 62
26 27 28 29 30 31 33 34 35 37 37 37 38 38 39 40 39 39 39 40 40 41 43 44 45 46 47 48 49 51 52 54 56 57 59 60 62 63 64 65 66 67 67
28 28 29 30 31 32 33 33 34 35 36 37 37 36 37 37 37 38 38 40 42 43 45 46 47 48 50 52 54 56 58 59 61 62 64 65 66 68 69 70 70 70 71
29 30 31 31 31 32 33 34 34 35 36 36 36 37 37 38 38 39 40 42 43 44 46 48 50 52 54 56 58 60 62 64 66 67 68 70 71 71 72 72 72 72 71
31 31 32 33 33 33 33 34 35 36 37 37 37 38 39 40 41 42 43 44 46 47 49 51 53 56 58 60 62 64 66 68 70 72 72 73 73 72 71 70 69 68 67

GEFSMW_500_meanwind_084.txt.gz
Wind_Speed
13 9 6 7 7 11 13 17 17 17 18 18 17 16 15 13 12 11 9 8 7 6 5 4 4 4 4 4 4 4 3 2 2 2 2 2 2 2 1 1 1 1 1
12 10 6 4 4 8 12 15 17 18 19 18 17 16 15 14 13 12 10 9 9 7 6 6 5 5 5 5 5 4 4 4 3 3 3 2 2 2 2 2 1 1 1
11 9 5 3 4 8 12 14 14 16 18 18 17 17 15 14 14 13 12 11 10 9 8 7 7 6 6 5 5 5 4 4 3 3 2 2 2 2 2 1 1 1 1
11 9 5 3 3 6 10 14 15 16 17 17 18 17 15 14 14 14 13 12 11 10 9 8 7 7 6 5 5 4 4 3 2 2 1 1 1 1 1 1 1 1 1
11 10 7 3 1 4 8 12 13 16 17 17 16 16 15 15 15 14 13 13 12 11 10 9 8 8 7 6 5 4 4 3 2 2 1 1 1 1 1 2 2 2 2
10 10 7 5 2 3 6 9 12 15 17 17 16 16 16 16 15 15 14 14 13 12 12 11 10 9 8 7 6 6 5 4 4 4 3 3 3 3 3 4 5 5 5
9 9 7 5 3 2 5 9 12 14 16 17 16 17 16 16 16 15 14 14 13 13 12 12 11 10 10 9 9 8 7 7 6 6 6 6 6 6 7 7 7 8 8
7 8 6 4 4 3 4 7 11 13 14 15 16 16 16 16 15 15 15 15 14 14 13 13 13 12 12 12 11 11 10 9 9 9 9 9 9 10 10 10 11 11 12
6 5 6 5 4 3 4 7 10 12 13 15 15 15 15 15 15 15 15 15 15 15 15 15 14 14 14 14 14 14 13 13 13 13 13 13 13 13 14 14 14 14 15
6 3 3 3 2 2 2 6 8 10 11 13 14 14 14 15 15 15 16 16 16 16 17 16 16 16 17 17 17 17 17 16 16 16 16 17 17 17 17 18 18 18 18
5 4 3 2 2 0 1 4 7 9 10 11 13 14 15 15 16 16 16 17 17 18 18 18 18 18 19 19 19 20 20 20 19 19 20 20 20 21 21 21 21 21 21
5 4 3 2 2 1 2 3 5 7 8 10 12 13 14 15 16 17 18 18 19 20 20 20 20 21 21 22 22 22 22 22 22 23 23 23 23 24 24 24 24 24 24
5 5 4 4 3 3 4 4 5 7 8 9 11 13 14 15 17 18 19 20 20 21 22 22 23 23 24 24 25 25 25 25 25 25 26 26 26 26 27 27 27 28 28
6 6 5 6 5 6 7 7 8 9 10 11 12 14 15 16 17 19 19 21 22 23 23 24 25 26 26 27 27 27 27 28 28 28 29 29 29 30 30 30 31 31 31
8 7 7 7 8 8 8 9 10 11 12 12 14 16 17 18 19 20 21 22 23 24 25 26 27 28 28 29 29 29 30 31 31 31 32 32 33 33 34 34 34 34 34
9 8 8 8 8 9 10 11 11 13 14 14 15 16 17 17 18 20 22 23 24 25 26 27 29 29 30 32 32 32 33 34 34 34 35 35 36 36 37 37 37 37 37
10 10 11 11 11 12 13 14 14 15 16 17 17 17 18 19 20 22 22 23 24 25 27 29 30 30 31 32 34 34 33 34 34 36 37 37 38 39 40 40 40 40 41
13 13 12 13 13 14 15 15 16 17 18 18 19 20 21 22 24 24 24 25 26 27 29 30 31 32 33 34 35 36 36 35 37 38 39 41 41 41 42 43 43 43 44
15 14 14 15 15 16 16 17 17 19 20 21 23 23 24 25 25 25 26 28 29 31 32 32 34 35 36 37 37 39 39 40 40 41 43 43 44 44 44 45 45 46 46
16 15 15 16 17 17 18 19 20 21 22 24 25 26 27 27 28 28 29 30 33 34 34 34 37 38 38 39 40 40 40 41 42 42 43 43 44 46 47 47 48 48 49
16 15 16 17 18 19 20 21 22 23 25 26 27 27 29 30 31 32 32 33 34 35 36 37 38 38 39 40 40 40 41 42 42 43 44 45 46 48 49 50 51 52 53
17 17 18 19 19 20 21 23 24 25 27 28 29 30 31 32 33 34 35 35 36 36 37 38 38 39 40 41 41 41 42 43 44 45 46 48 49 51 52 53 55 57 58
18 18 19 20 21 22 23 25 26 28 30 31 31 33 34 34 35 35 35 36 37 38 39 40 41 41 41 42 43 44 46 47 48 49 51 52 54 55 57 58 60 62 63
20 20 21 21 23 24 25 26 28 29 31 32 33 34 35 36 36 36 36 37 37 39 40 41 42 43 44 45 46 48 49 51 52 53 55 57 59 61 62 64 65 66 68
19 20 21 22 24 25 26 28 29 31 32 33 34 34 35 36 37 38 38 39 39 40 41 42 44 45 47 48 50 51 53 55 56 58 60 62 63 64 66 67 68 69 70
20 21 23 24 25 27 28 29 30 31 32 33 34 35 36 37 38 39 39 40 41 42 44 45 46 47 48 50 52 55 57 58 60 61 62 63 64 65 65 66 66 67 67

GEFSMW_500_meanwind_090.txt.gz
Wind_Speed
15 12 11 10 11 11 14 18 19 18 20 22 21 21 21 19 17 15 13 12 10 9 8 7 5 4 3 2 2 2 2 2 2 2 2 2 2 2 2 2 2 2 2
15 12 10 9 9 10 12 16 19 19 19 21 22 22 21 20 18 16 14 13 12 10 8 7 6 5 4 3 2 2 2 2 2 2 2 2 2 2 2 2 2 2 2
14 11 8 6 5 7 10 14 18 20 21 22 22 22 21 19 18 16 15 13 12 11 9 8 7 6 5 4 3 3 2 2 2 1 1 1 2 2 2 2 2 2 2
13 11 8 5 4 7 10 13 17 20 21 21 22 22 21 19 18 17 15 14 12 11 10 9 9 8 7 6 5 4 3 3 2 2 2 2 2 2 2 2 2 2 2
12 10 8 5 4 6 10 12 16 19 20 21 21 22 21 19 18 17 15 14 13 12 11 11 10 9 8 8 7 6 5 4 3 3 2 2 3 3 3 3 3 3 3
10 10 8 4 3 4 8 12 14 16 19 21 22 21 20 20 18 17 15 15 14 13 12 12 12 11 10 9 8 8 7 6 6 5 5 5 5 5 5 5 5 5 6
9 8 7 4 1 3 7 11 14 16 19 21 21 21 20 19 18 17 15 15 15 14 13 13 13 12 12 11 10 10 9 9 9 8 8 7 7 7 7 8 8 8 9
7 6 5 3 1 2 6 9 13 16 17 18 20 20 20 18 18 17 16 16 15 15 15 14 14 14 13 13 13 12 12 12 12 11 11 11 11 11 11 11 11 12 12
6 5 3 3 1 1 3 7 11 13 15 16 17 18 18 18 18 17 16 16 16 15 15 15 16 15 15 15 15 15 14 15 15 15 15 15 15 15 15 15 15 16 16
6 5 3 2 1 1 1 5 9 12 13 14 15 15 17 17 17 16 16 16 16 16 15 16 17 17 17 18 18 18 18 18 18 19 19 19 19 19 19 19 19 20 20
7 6 4 2 1 0 1 4 7 9 11 12 13 14 14 15 15 15 15 16 16 16 16 17 18 18 19 20 20 20 21 21 22 22 22 22 22 23 23 23 23 23 23
8 6 5 3 2 2 1 2 5 7 9 10 10 12 13 14 15 15 16 17 17 17 18 19 20 21 21 22 23 23 24 24 25 25 26 26 26 27 27 27 27 27 27
9 7 5 4 4 3 3 3 4 6 8 9 10 11 12 13 15 16 17 17 18 19 20 21 22 23 24 25 25 26 27 27 28 29 29 30 30 31 31 31 31 31 32
10 9 7 5 6 5 5 5 5 6 7 9 10 11 12 13 15 16 17 18 19 20 22 23 24 25 25 27 28 29 30 31 31 32 33 33 34 34 35 35 35 36 36
12 10 9 8 7 7 7 8 8 8 8 9 10 11 12 13 15 17 18 19 20 22 24 25 26 27 27 29 31 32 33 34 35 35 36 37 37 38 39 39 40 40 40
13 12 12 11 10 10 10 10 11 11 12 12 12 13 14 15 15 17 18 20 22 23 25 26 27 28 29 30 32 34 35 35 36 37 38 39 40 41 42 43 43 44 44
15 14 15 14 13 13 13 12 13 14 14 14 15 16 15 16 17 18 19 22 23 25 26 27 28 29 30 32 33 35 36 37 38 40 41 42 44 44 45 46 46 47 47
17 16 17 16 16 16 15 15 15 16 16 17 18 18 18 19 19 20 21 23 25 26 27 29 30 31 33 34 36 37 38 39 40 41 43 44 45 46 46 47 49 50 50
20 19 19 19 18 18 18 18 18 17 17 17 18 19 20 21 21 22 23 24 25 27 29 30 32 33 35 36 37 39 40 42 43 44 45 46 47 47 48 50 51 51 52
23 20 21 21 21 20 20 20 20 19 19 19 20 20 20 21 22 24 26 27 28 30 31 32 34 36 37 38 39 41 43 44 45 46 47 48 48 49 50 51 52 53 54
25 23 22 21 22 22 22 21 20 20 21 22 22 22 23 24 26 27 29 30 31 32 33 34 35 37 39 40 42 43 44 46 47 47 48 49 50 52 52 53 53 54 55
27 25 24 22 22 23 23 23 22 22 23 24 24 25 26 28 29 29 31 32 33 34 35 36 37 38 39 41 43 44 45 46 47 49 49 50 51 52 53 54 55 57 58
27 26 25 24 24 23 23 24 24 24 25 25 26 27 28 30 31 32 33 34 35 36 37 38 39 40 41 43 44 46 47 48 49 51 52 52 53 55 56 57 59 60 61
26 25 24 25 24 24 24 25 26 25 26 27 29 30 31 32 33 35 35 37 38 38 39 40 41 42 43 45 46 48 49 51 52 54 55 56 56 58 59 61 62 63 64
25 24 24 24 24 25 25 25 26 27 28 29 30 31 32 33 34 36 36 37 38 39 40 42 43 45 46 48 50 51 52 53 55 56 57 58 59 60 62 63 64 64 65
24 23 22 23 23 23 24 25 26 27 29 29 31 32 34 35 36 37 38 39 41 42 44 45 47 48 50 51 53 54 55 56 57 58 58 59 60 61 61 62 62 63 64

GEFSMW_500_meanwind_096.txt.gz
Wind_Speed
12 11 11 10 9 9 11 15 18 21 22 23 23 24 23 21 20 19 16 14 12 10 8 7 6 4 3 4 3 3 2 2 2 2 2 2 2 2 2 2 3 3 4
11 10 10 9 8 9 11 13 17 20 21 21 23 24 23 22 21 20 17 15 13 11 9 8 7 6 5 5 4 4 3 3 2 2 2 2 2 2 2 2 3 3 4
13 12 10 8 8 9 10 13 16 19 21 22 22 23 22 22 22 19 18 16 14 12 10 9 8 7 6 6 5 5 4 3 3 2 2 2 2 2 3 3 3 3 3
13 11 9 7 7 8 10 12 15 18 21 23 22 22 22 22 22 20 18 17 15 14 12 10 9 8 8 7 6 6 5 4 4 3 3 3 3 3 3 3 3 4 4
12 11 9 6 6 6 8 11 14 17 20 23 22 22 22 23 23 20 18 17 16 15 13 12 11 10 9 9 8 7 7 6 5 4 4 4 5 5 5 5 5 6 6
11 11 9 6 4 4 7 10 13 15 18 21 21 22 22 23 23 21 19 18 17 15 14 14 12 12 11 10 10 9 8 7 7 6 6 6 6 7 7 7 7 8 8
11 11 9 7 5 4 5 9 12 14 15 18 20 20 22 22 22 21 20 19 18 16 15 15 14 13 12 12 11 11 11 10 10 9 9 9 9 9 10 10 10 10 10
11 11 10 7 5 4 5 8 10 12 14 17 19 20 20 20 20 21 20 20 18 17 16 15 15 14 14 13 13 13 13 13 13 12 12 12 12 12 12 13 13 14 14
12 11 10 7 5 4 4 6 8 11 13 15 18 19 20 20 20 21 20 20 19 17 16 16 16 16 15 16 16 15 15 15 15 15 15 15 15 15 16 16 17 17 18
10 10 10 8 6 4 3 4 7 10 12 14 17 18 19 19 19 19 19 20 19 17 17 17 18 18 17 18 18 18 18 18 18 18 18 19 19 19 20 20 21 22 22
9 9 9 8 6 4 3 3 5 8 10 13 15 16 17 18 19 19 19 19 19 18 18 18 19 19 19 19 19 20 20 21 21 21 22 22 23 23 23 24 25 26 26
9 10 9 8 6 5 3 2 3 5 8 10 12 13 14 16 16 17 18 19 19 19 19 19 19 19 19 20 21 21 22 23 24 24 25 26 26 26 27 28 29 30 30
9 9 10 8 7 5 5 4 3 5 6 8 11 12 12 13 14 16 17 18 18 19 19 20 20 21 21 22 22 23 24 26 26 27 28 29 29 30 31 31 32 33 34
10 9 10 9 8 6 6 6 6 6 8 9 10 11 12 13 14 15 17 17 18 19 20 20 21 22 23 23 24 25 25 27 28 29 30 31 31 33 34 34 35 36 37
11 10 10 9 9 8 8 8 8 8 9 10 10 11 12 13 13 14 16 17 17 18 20 21 22 23 24 25 26 27 27 28 30 31 32 33 34 35 36 37 38 39 40
13 12 12 11 10 9 9 9 9 9 10 11 11 12 13 14 14 14 15 17 18 20 21 21 22 23 24 25 27 28 29 31 32 33 34 35 36 37 38 39 40 41 43
16 15 14 13 13 12 12 11 11 11 11 12 13 14 14 15 15 16 17 18 20 21 22 24 24 26 27 27 28 30 32 33 34 36 37 38 39 40 40 41 43 45 45
18 17 16 15 15 15 16 16 15 15 15 15 16 16 16 17 18 18 19 20 21 23 24 25 26 27 28 29 31 32 34 35 37 39 40 41 42 44 45 46 47 48 49
21 20 19 18 18 18 19 19 19 18 18 18 19 19 19 20 21 21 21 22 23 23 25 26 27 28 30 31 32 34 35 37 39 41 43 44 45 46 48 49 50 51 52
25 24 23 22 22 21 21 22 22 22 21 21 22 22 23 23 23 23 23 23 25 26 27 29 30 31 33 34 36 37 38 39 41 43 45 46 47 48 49 50 51 52 53
28 27 25 25 24 24 23 23 24 25 25 24 25 25 25 25 24 25 26 27 28 29 30 31 32 34 36 37 38 39 41 42 43 45 46 47 48 49 51 52 53 54 55
30 30 29 28 27 27 27 27 28 28 28 28 27 27 27 27 27 28 28 29 30 31 33 34 35 37 38 39 40 42 43 44 45 47 48 50 51 53 54 55 56 57 58
31 31 31 31 29 29 30 30 31 30 30 29 29 29 28 28 29 30 31 32 32 33 35 36 38 39 40 42 43 43 45 46 47 49 51 53 55 56 57 58 60 61 62
33 32 32 32 31 31 31 32 31 31 30 29 29 29 30 30 31 31 32 32 33 35 36 37 39 40 42 43 44 46 48 49 51 53 55 57 58 59 61 62 63 63 63
29 29 30 30 31 30 31 31 31 30 31 30 29 29 29 30 31 32 33 34 35 37 38 40 41 42 44 46 48 49 51 53 55 56 58 59 60 61 62 62 63 63 63
28 28 29 29 29 28 28 29 30 29 28 28 27 28 29 30 31 33 34 35 37 39 41 42 44 45 47 49 51 53 54 56 57 58 59 59 60 60 60 60 60 60 59

GEFSMW_500_meanwind_102.txt.gz
Wind_Speed
19 17 16 15 14 12 11 11 11 13 16 16 16 18 18 19 19 19 18 16 14 11 10 9 7 6 5 4 3 3 2 1 1 1 1 1 1 0 1 1 1 2 2
19 17 16 14 13 11 10 10 10 12 14 15 16 17 18 19 19 19 18 16 15 12 10 9 8 6 5 5 4 3 3 2 1 1 1 1 1 0 1 1 2 2 3
18 17 15 13 12 11 10 10 10 11 13 15 16 17 18 19 19 19 19 18 16 13 12 10 9 8 7 6 5 4 4 3 2 1 1 1 1 1 1 1 2 2 3
18 17 15 13 12 10 9 10 11 11 12 14 16 18 18 18 19 19 19 18 16 14 13 11 10 9 9 8 7 6 5 4 3 2 2 2 2 1 2 2 2 3 3
16 15 14 13 11 10 9 10 9 10 12 14 15 17 18 18 19 19 19 18 17 16 14 13 12 12 11 9 8 8 7 6 5 4 4 4 3 3 3 3 4 4 5
16 15 14 13 11 9 9 8 9 9 11 13 14 16 17 17 18 18 18 18 17 16 15 14 14 13 12 11 10 10 9 8 8 7 7 6 6 6 6 6 6 6 7
15 14 13 13 10 8 7 7 8 9 10 12 13 14 16 17 18 19 19 18 18 16 15 15 16 15 14 13 13 12 11 11 10 10 10 10 10 10 10 10 10 10 10
14 13 13 12 11 8 7 5 6 9 10 11 12 13 15 17 18 19 19 19 18 17 17 17 16 16 16 15 15 14 14 14 14 13 13 13 13 13 13 14 14 14 14
13 13 12 12 11 9 7 5 6 8 9 10 12 13 14 16 17 18 19 19 18 18 18 18 17 17 17 17 17 16 16 16 17 17 17 17 17 17 17 17 18 18 18
13 12 12 11 11 9 7 6 6 8 9 10 12 12 13 15 17 17 18 18 18 19 19 20 19 19 18 18 18 18 18 19 19 19 20 20 20 21 21 21 22 22 23
12 12 12 11 12 10 7 5 5 5 7 9 10 11 12 14 17 17 17 18 18 19 20 21 21 21 21 20 20 20 20 20 21 21 22 23 24 24 24 24 25 25 26
12 11 11 11 11 10 8 6 5 4 5 6 7 8 11 13 14 16 16 17 18 19 20 21 21 22 22 22 22 22 22 22 22 23 24 25 26 26 27 27 27 28 28
13 11 11 11 11 9 8 7 6 5 3 4 6 7 9 12 13 13 14 15 17 18 19 20 21 21 22 22 22 22 22 23 24 25 25 26 27 28 28 29 29 30 31
14 12 12 11 11 10 8 7 6 5 4 5 6 7 9 10 10 11 12 14 16 17 19 20 20 21 21 22 23 23 24 24 25 26 27 27 28 29 30 30 32 33 34
16 14 12 12 11 11 9 8 7 6 5 5 5 6 8 9 10 11 12 13 15 16 18 19 19 20 21 22 23 24 25 26 26 27 27 28 29 30 31 32 33 35 36
18 17 15 14 13 12 11 9 8 8 8 8 8 9 10 11 12 13 14 14 15 16 18 19 20 20 20 22 24 25 26 27 27 28 28 29 30 32 33 34 36 37 38
21 20 19 17 16 15 14 12 11 10 11 11 12 12 12 13 14 15 16 16 17 18 18 19 19 21 22 23 25 26 27 28 30 30 31 32 33 34 36 38 38 40 42
25 24 22 20 19 18 16 15 13 13 13 13 13 14 15 16 17 17 18 19 19 20 21 21 23 23 24 25 26 27 28 30 31 32 34 35 36 38 38 40 41 42 43
29 27 26 24 23 21 20 19 18 17 16 16 16 17 18 18 18 19 20 21 21 22 23 24 26 26 27 27 28 29 30 32 33 34 36 37 38 39 40 41 43 44 45
32 31 29 28 26 25 23 23 22 20 20 19 19 20 20 20 21 22 23 24 25 26 27 27 28 29 29 30 31 32 33 34 36 37 38 40 41 42 43 45 46 47 49
34 33 32 31 29 27 26 25 25 24 23 23 23 24 24 24 25 25 26 27 28 29 29 29 30 31 31 32 33 35 36 37 38 39 40 41 42 44 45 47 48 50 52
35 34 33 32 31 30 29 29 28 28 27 27 27 28 28 28 29 29 29 30 32 32 33 33 33 34 34 35 36 37 38 39 40 41 42 44 45 46 48 50 52 53 55
36 35 35 34 33 33 32 31 30 30 30 30 30 30 31 31 32 32 33 34 35 35 35 35 35 35 36 37 38 39 40 41 42 43 45 47 48 50 51 53 55 57 58
34 34 35 34 34 34 34 32 31 31 32 32 32 33 33 33 33 34 35 36 36 35 35 35 34 36 37 39 39 40 41 42 44 46 48 49 51 53 55 56 57 58 59
34 33 34 34 34 34 34 32 31 31 32 32 33 33 33 33 34 34 34 33 33 33 33 34 35 36 37 39 40 42 44 45 47 49 50 52 54 55 56 57 58 59 59
31 31 31 32 32 33 33 33 33 32 32 32 32 32 33 32 32 32 31 31 32 33 33 34 36 38 40 41 43 45 46 48 50 51 52 54 55 56 57 57 57 58 57

GEFSMW_500_meanwind_108.txt.gz
Wind_Speed
17 15 14 13 12 10 9 7 9 8 9 11 12 15 17 18 18 17 17 15 15 14 12 10 9 8 7 6 5 5 4 3 3 3 2 2 2 2 1 1 2 2 2
15 15 14 13 12 11 10 7 6 8 9 12 12 14 15 17 17 18 18 17 15 14 13 12 11 9 8 7 6 6 5 4 4 4 3 3 3 3 2 2 2 2 2
13 14 14 13 11 10 8 7 5 6 9 12 13 13 14 15 16 17 18 17 16 15 15 14 13 11 10 9 8 7 6 5 5 5 4 4 3 3 3 3 2 2 1
12 12 13 13 11 9 7 6 5 6 9 11 13 14 14 15 17 17 18 17 17 17 16 15 14 13 12 11 10 9 8 7 7 6 5 4 4 3 3 3 2 2 2
11 12 12 12 10 8 5 5 6 7 8 11 12 14 15 16 17 18 18 18 17 17 17 17 16 15 13 12 11 11 10 9 8 7 6 5 5 4 4 4 4 4 4
11 11 12 12 10 7 5 4 5 7 8 10 12 13 15 16 18 18 19 19 18 18 18 18 17 16 15 14 13 13 12 11 10 9 9 8 7 7 6 6 6 6 6
11 10 11 11 9 7 5 4 4 6 7 10 12 13 14 16 18 19 19 20 20 20 19 19 18 17 16 15 15 15 14 13 12 12 11 10 10 10 9 9 9 9 9
9 10 10 10 9 8 6 5 5 6 8 9 11 12 13 16 17 18 19 19 21 21 20 20 19 18 17 17 17 17 16 15 15 14 14 13 13 13 12 12 12 13 13
7 9 9 10 9 7 6 5 4 4 6 8 11 13 13 15 16 17 18 19 21 21 21 20 20 20 19 19 19 19 18 17 17 17 17 16 16 16 16 16 16 16 17
5 6 8 9 9 8 7 6 4 4 5 7 9 11 13 14 16 18 18 19 21 21 20 20 21 21 20 20 20 20 19 19 19 19 19 19 20 19 19 19 19 19 20
6 7 7 8 9 8 7 6 4 4 5 6 8 9 11 12 15 17 18 18 19 20 20 20 20 21 22 22 21 21 21 21 21 21 21 21 22 22 22 22 22 22 22
7 7 7 7 7 8 7 6 4 4 5 6 7 9 11 12 13 15 17 17 17 18 19 20 20 20 21 22 23 23 23 23 23 23 23 23 24 24 24 24 24 24 25
7 8 7 6 7 6 7 6 5 5 5 5 5 8 9 11 11 13 15 16 16 17 19 20 20 20 21 22 23 24 24 24 24 24 24 24 24 24 24 25 26 26 27
9 9 8 7 7 7 7 7 6 5 4 4 5 6 8 9 11 11 13 15 16 17 17 19 19 19 19 21 22 23 24 25 25 24 24 25 25 26 26 26 27 27 28
11 11 11 10 9 8 8 7 6 5 4 5 6 7 8 9 11 11 12 13 14 15 16 17 18 18 19 21 21 22 23 24 25 25 26 26 27 27 28 28 29 30 30
14 15 15 13 11 10 9 9 8 8 7 7 7 8 8 9 10 12 13 14 14 15 16 16 17 18 19 20 21 22 23 24 25 26 27 27 28 29 30 31 32 33 34
19 19 16 14 13 12 12 12 11 10 9 9 9 8 8 9 10 11 12 14 15 14 15 16 17 18 19 20 20 21 23 24 25 27 28 30 31 31 32 33 34 35 36
23 21 19 17 16 15 15 14 13 12 12 11 11 11 11 11 12 12 13 13 14 16 17 18 19 19 20 21 23 25 26 28 29 30 31 32 33 34 35 36 37 38 39
24 25 24 21 20 19 18 17 16 15 15 14 14 13 13 14 14 15 15 15 16 17 18 19 20 21 22 23 25 27 28 30 31 32 33 34 35 36 37 38 39 40 42
28 27 26 24 23 21 20 19 19 18 18 17 17 17 17 17 16 17 18 18 18 20 21 22 23 24 25 26 28 29 31 32 33 34 34 36 37 38 39 41 42 43 45
29 28 27 26 24 23 23 22 22 21 20 20 20 20 20 19 18 19 19 21 21 22 23 24 25 27 29 29 30 32 34 35 35 36 37 38 39 41 42 43 44 46 47
30 30 29 27 25 25 25 24 24 23 22 22 22 23 23 22 22 22 23 24 25 25 26 27 28 29 31 32 33 34 35 36 37 38 39 40 41 42 44 46 47 49 50
31 31 30 29 27 26 26 25 25 25 24 24 24 25 24 24 24 25 25 25 26 27 29 30 30 32 32 33 35 35 36 37 38 39 40 42 43 44 46 47 49 50 51
31 31 30 28 27 26 26 26 26 26 26 25 25 25 25 25 26 26 25 26 27 29 30 30 32 33 34 34 36 36 37 39 40 41 42 43 45 46 48 49 51 52 54
28 28 28 27 26 25 24 25 26 26 27 26 27 26 26 27 27 27 28 29 29 29 30 31 32 32 33 35 37 38 39 41 41 42 43 45 47 48 50 52 53 54 56
25 25 25 24 23 23 23 23 24 25 26 26 26 26 27 27 27 28 29 29 29 29 29 29 30 31 33 36 37 39 41 42 43 44 46 47 49 51 52 53 54 55 56

GEFSMW_500_meanwind_114.txt.gz
Wind_Speed
17 17 17 15 14 12 11 9 8 8 9 12 15 16 18 19 19 18 19 18 17 15 14 12 11 10 9 8 7 5 4 3 3 2 2 2 2 3 3 3 3 2 2
17 17 17 16 15 13 10 8 7 7 10 12 15 17 19 20 19 18 19 18 18 17 15 13 12 12 11 9 8 7 5 4 4 3 3 3 3 3 2 2 2 2 2
16 16 16 15 14 13 11 10 9 9 10 11 12 15 16 18 19 18 19 18 18 17 16 15 13 13 12 11 10 8 7 6 5 5 5 4 4 3 3 3 3 3 2
16 16 16 15 14 13 11 8 7 8 10 11 12 14 15 16 17 19 20 19 18 17 16 16 14 14 14 13 12 10 9 8 8 7 6 5 5 5 4 4 4 4 3
15 15 15 15 14 12 10 7 6 7 9 11 12 13 14 15 18 19 19 19 19 18 18 17 16 15 15 14 13 12 11 10 9 9 8 7 7 7 6 6 5 5 5
14 14 14 14 13 11 9 7 6 6 7 10 11 11 13 15 17 19 20 20 19 19 19 19 17 17 16 16 15 14 14 13 12 11 10 10 10 9 9 9 8 8 8
12 12 13 13 12 11 9 7 7 7 8 9 10 11 12 14 16 18 19 20 20 19 20 19 19 18 18 18 17 16 16 15 15 14 13 13 12 12 12 12 12 11 11
11 12 13 12 12 11 9 8 7 7 8 8 9 11 12 14 15 16 18 20 21 21 20 20 20 19 19 19 18 18 18 17 17 17 16 15 15 15 15 15 15 15 15
10 11 11 11 11 11 9 8 7 8 8 9 10 12 13 14 15 16 17 19 21 21 21 21 21 21 20 20 20 19 19 19 19 19 19 19 18 19 19 18 18 19 19
11 11 11 11 11 11 10 8 8 7 8 8 9 11 13 14 15 17 18 18 20 21 21 20 20 21 21 21 21 21 21 21 21 21 21 21 21 21 22 22 22 22 22
11 11 11 11 10 10 9 7 7 7 6 7 8 10 11 13 13 15 17 18 19 20 20 20 20 20 20 21 21 22 22 23 23 23 23 23 23 24 24 25 25 25 25
10 10 10 10 10 9 9 7 7 7 6 7 7 8 9 12 13 14 15 15 16 18 19 20 20 20 19 20 21 22 23 23 24 25 25 25 25 26 26 26 27 28 28
10 10 10 9 9 8 8 8 7 8 7 7 8 8 9 10 12 13 14 14 14 17 18 19 20 19 19 20 21 22 23 24 24 25 26 26 26 27 27 28 28 29 29
12 12 11 10 9 9 9 9 8 8 8 8 8 10 11 11 12 12 13 14 15 16 18 19 19 19 19 21 22 23 23 24 24 24 25 26 27 27 28 29 30 30 31
14 14 12 12 11 10 10 10 9 9 8 8 9 9 11 11 11 12 12 14 15 16 16 17 18 19 20 21 22 23 23 23 24 25 25 26 27 29 29 30 31 32 33
16 16 15 14 13 13 12 11 10 10 9 9 9 10 11 11 11 11 12 13 14 15 16 17 18 19 20 21 22 23 24 24 25 26 27 28 29 30 31 32 33 33 35
18 18 18 16 15 14 14 14 13 12 12 11 11 11 11 12 12 12 13 14 15 16 17 18 18 19 20 20 21 22 23 24 25 27 28 30 31 31 32 33 35 36 38
20 20 20 19 19 18 17 16 15 15 14 15 14 14 14 14 14 15 15 15 15 15 17 17 18 20 21 21 21 22 24 25 27 28 29 30 32 33 34 35 37 38 39
22 22 22 22 21 20 20 19 18 18 18 17 16 16 16 16 16 16 16 16 17 18 18 18 18 19 20 20 22 24 26 27 28 30 31 32 34 35 37 39 40 41 42
24 24 24 24 23 23 21 21 21 20 20 20 19 19 19 18 18 18 18 18 19 20 20 19 20 21 22 23 24 26 27 29 30 32 33 35 37 39 41 42 43 44 46
25 25 26 25 24 24 23 23 22 23 23 22 22 21 21 20 20 20 21 21 21 22 21 22 22 23 24 25 27 28 30 31 32 34 35 37 38 40 42 43 45 47 48
25 26 25 24 24 24 24 24 24 24 24 24 23 22 22 22 22 22 23 23 24 24 24 24 24 26 27 28 29 31 32 34 35 36 38 39 41 42 44 45 47 49 50
25 25 25 25 25 26 25 25 25 26 25 24 25 25 25 24 24 24 24 24 24 25 25 26 26 27 28 30 31 32 34 35 36 38 40 41 43 45 47 49 50 51 52
24 24 24 25 25 25 26 26 26 27 27 26 25 26 26 25 25 25 25 25 25 26 27 28 29 29 30 32 34 34 35 37 38 40 41 43 46 47 49 50 51 52 54
23 23 23 23 23 24 24 25 25 26 27 27 26 26 25 24 25 25 25 26 27 27 28 29 30 31 32 33 34 36 38 39 40 42 43 45 47 48 50 51 52 54 55
23 22 22 22 21 21 22 22 23 23 23 23 24 24 25 24 24 24 25 27 28 28 29 29 30 31 32 34 35 36 36 38 40 42 45 46 47 49 50 51 53 55 56

GEFSMW_500_meanwind_120.txt.gz
Wind_Speed
13 13 12 12 11 10 10 9 8 8 9 10 13 13 15 18 19 19 19 18 17 16 16 15 13 12 10 9 8 7 6 5 5 4 4 4 4 4 4 4 5 5 5
12 12 12 12 11 10 9 9 8 7 7 9 10 12 13 15 17 18 18 18 17 17 16 16 15 13 12 10 9 8 8 7 6 6 5 5 4 3 4 4 4 4 4
12 12 12 11 11 10 10 9 7 7 7 8 9 11 12 14 15 16 17 18 18 18 16 16 16 14 13 11 10 9 9 9 8 7 6 6 5 5 4 4 4 5 5
12 12 12 11 11 10 10 9 8 7 7 7 8 10 12 13 14 15 17 17 18 18 18 17 16 15 14 13 11 11 11 10 10 9 8 8 7 7 6 6 6 6 6
11 11 11 11 11 10 10 9 9 8 7 7 8 10 11 13 14 15 16 17 18 18 18 18 17 16 16 14 13 12 12 12 12 12 11 10 9 9 9 8 8 8 8
10 10 10 10 10 9 8 8 8 7 7 7 8 10 11 12 13 14 16 17 18 19 20 19 18 17 17 16 15 14 14 14 14 14 13 12 12 12 11 11 11 11 11
10 9 9 10 9 9 8 9 8 7 7 7 8 10 11 11 12 14 15 16 18 19 20 20 19 19 18 18 17 17 16 16 16 15 15 15 15 15 15 14 14 15 15
8 8 9 9 8 8 8 8 7 7 7 8 8 9 11 12 13 14 15 16 17 19 20 20 20 20 20 20 19 19 18 18 17 17 17 17 18 18 18 18 18 18 18
8 8 8 7 7 8 8 8 7 7 7 8 8 10 11 12 13 15 15 16 16 18 19 20 21 21 22 21 21 20 20 20 20 20 20 20 20 20 20 20 21 21 21
8 8 8 8 8 8 8 8 8 8 7 8 9 9 11 12 13 14 15 16 16 17 19 20 20 21 22 23 23 22 22 21 21 21 22 22 22 22 22 23 23 24 24
9 8 9 9 9 9 8 8 7 7 7 8 9 9 10 11 13 14 14 15 16 18 20 20 21 21 21 22 21 21 21 21 22 23 23 23 23 24 24 25 26 27 27
10 9 9 10 10 10 9 8 8 8 8 9 9 10 10 11 12 13 14 15 15 16 18 19 20 20 21 21 22 22 21 21 22 23 23 24 25 26 26 27 27 28 29
11 11 11 11 10 9 9 8 8 8 9 10 10 11 12 12 13 14 15 16 16 16 17 18 19 20 20 22 23 23 23 23 23 23 24 25 26 27 28 29 29 28 29
11 11 12 11 10 10 10 10 10 10 11 11 12 12 12 12 12 13 14 15 15 16 17 18 19 19 19 20 22 23 23 23 24 25 26 27 28 29 29 29 30 30 30
12 12 12 12 12 12 12 11 12 12 12 11 11 12 12 13 14 14 15 15 15 16 17 18 18 19 19 19 21 22 23 24 25 26 27 28 29 29 30 31 31 31 32
15 15 14 14 14 14 13 13 14 14 14 13 12 12 12 13 14 15 15 16 16 16 16 18 18 19 20 21 22 22 23 24 25 26 28 29 29 30 32 32 33 33 33
18 18 17 16 17 16 15 15 15 15 15 15 14 14 14 14 15 15 16 16 16 17 17 18 19 20 20 21 22 23 24 25 25 26 27 28 29 29 32 33 33 34 35
20 19 19 19 19 18 18 18 17 16 17 17 17 17 17 16 16 17 17 17 17 17 17 18 19 20 21 22 23 24 25 25 27 27 28 28 29 30 31 33 34 35 36
21 21 21 21 21 21 20 19 19 19 19 19 18 18 18 19 18 19 19 19 19 19 19 20 21 22 23 24 25 25 26 27 27 28 28 29 30 31 33 34 34 35 36
22 22 22 22 22 22 22 22 22 22 22 22 21 20 21 21 21 21 21 21 22 22 22 23 24 25 25 26 25 26 27 28 28 29 29 30 31 32 34 35 36 37 39
23 24 24 24 24 24 24 25 24 24 24 23 23 22 22 23 23 22 23 23 23 23 24 25 26 26 26 26 26 27 28 29 31 31 32 33 34 35 36 38 39 40 42
25 25 25 25 26 26 26 26 26 26 26 25 24 24 24 24 24 24 24 24 25 25 26 26 27 27 27 26 26 27 28 30 32 33 34 36 37 38 40 41 42 43 45
25 25 25 26 26 27 27 27 27 27 26 26 26 26 27 26 26 27 27 27 27 27 27 27 27 28 27 28 29 30 31 32 34 35 37 38 39 41 43 43 44 45 47
25 25 26 26 26 26 26 26 26 26 26 27 27 27 27 27 27 27 27 28 27 27 27 27 28 28 28 29 30 32 33 34 35 36 37 39 40 41 43 44 45 46 47
27 27 27 26 26 26 26 26 26 26 27 27 27 27 27 27 27 27 26 26 27 27 27 27 27 28 28 29 30 31 32 34 36 37 38 39 40 41 42 43 44 45 46
27 27 27 27 27 26 26 26 25 25 25 25 25 25 25 25 26 26 25 25 25 26 26 26 28 28 28 29 31 32 33 34 35 35 36 37 38 39 40 41 42 43 44

GEFSMW_500_meanwind_126.txt.gz
Wind_Speed
16 16 16 15 14 13 12 11 11 10 8 8 8 9 9 10 11 12 14 15 15 15 14 13 12 12 11 10 9 8 7 7 6 6 5 5 5 5 5 5 5 5 5
15 15 15 14 14 13 11 11 11 10 9 8 8 9 9 10 10 11 12 14 15 15 14 14 14 14 13 12 11 10 9 8 7 7 6 6 6 5 6 6 5 5 5
14 13 14 14 13 12 11 11 11 11 10 9 8 8 9 10 11 11 12 13 13 14 15 15 15 15 14 14 13 12 11 10 9 8 8 7 7 7 6 5 6 5 5
14 13 13 14 13 12 11 11 11 10 10 9 8 8 8 9 10 11 12 13 13 14 14 15 15 15 16 15 14 14 13 12 11 10 10 10 9 9 8 7 7 6 6
14 14 13 13 13 12 12 11 10 10 9 9 9 8 8 10 10 11 12 13 14 15 15 15 15 16 16 16 15 15 14 13 13 13 12 12 11 11 11 10 9 9 8
15 15 14 13 14 13 12 11 10 9 9 9 8 7 7 9 10 11 11 12 13 14 15 15 16 16 16 17 17 17 16 15 14 14 14 14 14 14 13 13 12 12 12
15 15 15 14 14 13 12 11 11 9 9 8 8 7 8 8 9 10 11 12 13 14 15 15 16 16 16 17 18 18 18 16 16 16 16 16 17 16 16 16 15 15 15
15 14 14 13 13 12 11 11 10 10 9 9 9 9 9 9 9 10 10 12 13 14 15 15 16 17 17 18 19 19 18 18 18 18 18 18 18 18 18 18 18 18 18
14 14 14 14 13 12 12 11 10 10 9 9 10 10 11 10 11 11 12 13 14 15 15 16 17 18 18 18 19 20 20 20 21 20 20 20 20 20 20 20 20 20 20
14 14 14 14 13 12 11 11 11 10 10 10 10 10 11 11 11 12 12 13 13 14 16 16 18 19 19 20 19 20 20 20 20 20 21 22 22 21 22 22 22 23 23
15 14 13 13 12 12 11 11 10 10 9 10 10 10 11 11 11 12 13 13 14 14 16 17 18 19 19 20 20 20 20 20 20 21 20 21 21 22 23 23 24 24 25
15 15 14 14 13 13 12 11 11 10 10 10 10 11 11 12 12 13 13 14 14 15 16 17 18 18 19 19 20 21 22 22 21 21 22 22 22 23 24 25 26 27 27
16 16 15 15 14 13 13 12 11 11 11 11 11 12 11 12 13 13 14 15 15 15 16 17 17 18 19 19 20 21 21 22 22 22 23 23 24 24 25 26 27 28 29
18 17 16 16 15 15 14 14 13 12 12 12 12 12 13 13 13 14 14 15 15 15 16 17 18 19 19 19 19 20 20 20 22 23 24 25 25 26 26 27 27 28 29
20 19 17 17 17 16 16 15 14 14 14 14 13 14 14 14 14 14 14 15 16 16 16 16 16 17 17 18 19 19 19 21 22 23 24 26 27 28 28 29 29 29 31
21 20 19 19 19 18 18 18 17 16 16 16 16 15 15 14 14 14 15 16 17 17 18 18 18 18 18 19 20 21 22 22 23 24 25 26 28 28 29 30 30 31 32
22 22 21 20 20 20 20 19 19 18 18 18 17 16 16 16 15 16 16 16 18 18 18 18 18 18 19 20 20 21 23 24 24 25 27 28 28 29 29 30 30 31 32
24 23 22 22 22 22 21 20 20 20 20 19 19 18 17 17 17 18 18 18 19 18 18 18 18 18 19 20 21 22 23 25 26 27 28 29 29 30 31 32 32 32 32
24 24 24 23 23 23 22 22 22 21 21 21 20 19 19 19 19 20 19 19 19 19 19 20 20 21 21 22 23 24 25 26 26 27 28 29 29 30 30 31 31 32 33
25 25 25 24 23 23 23 23 23 23 23 22 22 21 22 22 21 21 21 20 20 20 21 21 22 23 24 24 24 25 26 26 27 28 28 30 31 31 31 31 32 33 34
26 26 26 25 25 24 24 24 24 23 23 24 24 24 24 24 23 23 22 22 22 22 22 23 24 24 25 25 26 26 27 28 28 28 28 30 31 32 32 33 33 35 36
28 27 26 26 26 25 26 25 25 25 25 25 24 24 24 24 24 25 24 24 24 24 24 24 24 24 25 25 25 26 26 27 28 29 30 30 31 32 33 35 36 38 38
30 29 28 27 27 26 26 26 26 25 25 26 25 25 25 25 25 25 25 25 25 25 26 26 26 26 25 25 26 27 27 28 29 30 31 31 32 33 34 35 36 37 38
31 30 29 29 28 27 27 27 26 26 25 25 25 26 26 26 26 25 25 25 25 26 26 26 27 26 26 26 27 27 28 29 30 30 31 31 32 33 34 34 35 37 38
31 30 29 29 28 28 28 27 27 26 26 26 26 26 26 26 26 25 25 25 25 26 26 25 25 26 25 25 26 26 28 28 29 30 31 31 31 31 32 34 35 36 37
31 30 29 29 28 28 27 27 28 28 27 26 25 25 25 25 25 24 24 24 25 25 24 24 25 24 24 24 26 27 28 28 29 29 29 30 30 31 32 33 34 34 35

GEFSMW_500_meanwind_132.txt.gz
Wind_Speed
17 17 16 14 11 10 9 9 8 7 7 6 5 5 6 8 10 10 12 12 12 12 12 11 10 9 9 8 7 7 7 7 6 6 5 6 6 6 6 7 7 7 7
17 16 16 13 11 9 8 8 7 7 6 6 5 4 6 7 8 10 10 10 11 11 12 11 11 10 10 10 9 9 9 9 8 8 7 7 7 7 7 8 8 8 8
16 16 15 13 10 9 8 7 7 7 6 6 6 5 5 6 7 8 9 9 10 11 12 12 11 11 11 11 10 10 10 10 10 10 9 9 8 8 8 9 8 8 8
16 16 14 11 10 9 8 7 7 7 7 6 6 4 4 5 6 7 9 10 11 11 12 12 11 11 10 10 11 11 11 11 11 11 11 11 10 10 10 10 10 10 10
15 14 12 10 9 8 8 7 7 7 7 6 6 5 5 5 6 8 9 10 11 12 12 12 12 12 12 11 11 12 12 12 12 12 12 12 12 12 12 12 12 12 11
14 12 11 10 9 8 7 7 7 7 6 6 6 5 5 6 7 8 10 11 11 12 13 13 13 13 13 13 13 13 12 13 13 13 13 13 13 14 13 14 14 13 13
14 12 11 10 9 8 8 7 7 7 6 6 6 6 6 7 7 8 10 12 12 13 13 13 13 13 14 14 14 14 14 14 14 14 15 15 15 15 15 15 15 15 15
14 12 11 9 8 8 8 7 7 7 7 7 7 7 7 8 7 8 9 11 12 12 14 14 14 14 14 14 14 14 15 15 15 15 16 16 16 16 16 16 17 17 17
12 11 10 10 9 8 8 7 7 8 7 7 6 7 7 8 7 9 9 10 11 12 12 13 14 15 15 15 15 16 16 17 17 17 17 17 18 17 17 18 18 18 19
12 10 9 10 9 9 8 8 8 8 7 6 6 6 7 7 7 8 9 10 10 11 12 12 13 14 15 16 16 16 17 17 18 18 19 19 19 20 20 19 20 20 20
11 10 9 9 9 8 9 8 8 8 7 7 7 7 8 8 8 8 9 10 11 12 12 14 14 15 16 16 17 17 18 18 19 20 20 20 21 21 21 21 21 21 22
9 10 10 9 9 9 10 10 9 8 8 8 8 9 9 9 9 10 10 10 10 11 12 13 14 14 16 17 18 19 18 19 19 20 21 20 21 21 22 21 21 21 22
9 10 11 11 10 10 11 11 11 10 10 9 9 9 10 10 10 10 10 10 10 11 13 13 13 14 16 17 18 19 19 19 19 19 20 21 22 21 22 21 22 23 24
11 11 11 12 12 12 12 12 11 11 11 11 10 10 11 11 11 11 11 11 11 12 12 13 14 15 17 18 18 18 19 19 19 19 20 22 22 22 22 23 24 25 26
14 14 14 14 14 14 13 13 13 12 12 12 12 12 12 11 11 12 12 12 12 12 13 14 15 16 17 18 18 18 19 19 20 21 21 21 22 22 23 24 25 27 28
17 16 16 15 15 15 14 14 14 14 13 13 13 13 13 13 13 13 13 12 12 13 14 15 16 16 17 18 18 19 19 20 20 21 22 23 24 24 25 26 27 28 29
19 17 17 17 16 16 15 15 15 15 14 14 14 15 14 14 14 13 14 14 13 13 13 14 15 16 17 18 19 19 19 20 20 21 22 24 25 26 27 27 28 29 29
20 18 18 19 18 17 16 16 16 16 15 15 15 15 15 14 14 14 14 15 15 16 16 16 17 18 18 19 19 20 21 21 22 22 24 24 25 26 27 27 28 29 30
22 20 18 18 18 18 18 18 18 17 17 17 16 16 16 16 16 16 16 17 17 17 17 17 18 19 19 19 20 21 22 22 22 23 24 25 26 27 28 28 28 30 30
22 22 20 20 20 20 19 19 19 19 19 18 18 17 17 17 18 18 18 18 18 18 18 18 19 19 19 20 20 21 21 22 22 24 24 25 26 26 27 28 29 30 31
23 22 22 21 21 21 21 21 20 20 20 20 19 19 19 19 19 19 19 20 19 19 19 19 19 19 20 20 20 20 21 22 23 24 24 25 26 27 27 29 30 30 30
22 23 23 23 23 23 23 23 23 22 22 22 21 21 20 20 21 21 20 20 20 21 21 21 20 20 20 21 20 21 22 23 24 25 26 27 27 28 28 29 29 29 30
24 24 25 25 25 24 24 24 24 24 24 24 23 22 22 21 21 21 21 21 21 22 22 21 21 21 21 21 22 22 22 23 24 25 26 27 27 28 29 28 28 30 30
27 28 27 27 26 26 26 26 25 25 25 25 24 24 23 23 23 23 22 22 22 22 22 22 22 22 21 22 22 23 23 24 24 25 25 25 26 28 28 28 29 29 30
29 29 28 27 27 27 27 26 26 25 25 25 25 25 24 24 24 23 23 22 22 22 22 22 22 22 22 22 23 23 23 23 24 25 25 26 27 28 28 28 28 29 30
29 29 28 28 28 28 28 27 26 26 25 25 24 24 24 24 23 23 22 22 23 23 23 23 22 22 22 23 24 24 23 24 24 25 26 27 27 27 27 28 29 30 31

GEFSMW_500_meanwind_138.txt.gz
Wind_Speed
16 16 15 15 14 11 8 7 6 5 5 4 4 4 5 7 9 10 11 11 12 12 10 10 9 9 10 9 9 8 8 8 7 6 6 6 6 6 7 7 7 7 8
16 17 16 15 12 10 8 6 5 5 4 4 3 2 3 6 7 10 10 10 11 12 12 11 10 11 10 10 10 10 10 10 9 8 8 8 8 9 9 9 8 9 9
15 15 14 13 12 10 8 6 5 5 4 4 3 3 3 4 6 9 10 11 11 11 11 11 11 11 11 10 11 11 10 10 10 10 10 10 10 10 10 10 10 10 10
15 15 15 13 12 10 8 6 6 5 5 4 5 5 4 5 5 7 9 11 12 13 12 12 11 11 12 12 12 12 12 11 11 11 11 11 11 11 11 11 12 12 12
14 15 14 13 12 9 7 7 6 5 5 5 5 5 5 6 6 7 9 11 12 13 13 13 13 12 12 13 13 13 13 13 12 12 12 12 12 13 13 14 14 13 13
15 15 14 13 12 10 8 7 7 6 5 5 6 5 6 6 6 7 8 10 11 13 14 13 14 14 13 14 14 14 15 15 15 14 14 14 14 14 15 15 15 15 15
14 15 13 12 12 10 9 7 7 8 7 7 7 6 6 6 6 7 8 9 11 12 14 14 15 15 15 15 15 15 16 17 17 16 16 15 15 16 16 16 17 17 17
13 13 12 12 11 9 9 8 8 8 8 8 8 6 6 7 8 8 9 10 11 12 14 14 15 16 16 16 16 16 17 17 17 17 17 17 17 17 18 18 18 18 18
13 13 11 10 9 9 9 8 8 8 8 8 7 7 7 8 9 9 10 11 11 13 14 15 15 16 17 17 16 16 17 17 17 18 19 19 19 20 20 20 20 20 20
12 12 11 9 8 8 8 9 9 9 8 8 8 8 8 9 9 10 10 10 12 13 14 14 15 16 17 17 18 17 18 19 19 19 20 20 20 21 21 21 22 22 23
12 13 10 8 8 8 8 9 10 9 9 8 8 8 9 10 10 11 12 12 13 13 14 15 16 16 17 18 18 19 19 19 20 20 21 21 22 22 22 22 22 23 23
11 11 10 8 8 9 9 10 10 9 8 8 8 9 10 10 11 12 13 13 13 14 15 15 15 16 17 18 19 19 19 20 20 20 21 22 22 23 23 23 24 25 25
12 12 11 9 9 9 9 9 9 9 9 9 9 10 11 11 12 12 12 13 14 14 14 14 15 16 16 17 18 19 20 19 20 20 21 22 23 23 23 24 24 25 26
13 12 11 11 10 10 10 10 10 9 9 9 9 10 10 11 12 13 13 13 14 14 14 14 15 16 16 17 18 19 20 19 19 20 21 22 23 23 24 25 25 26 26
13 13 12 12 12 11 11 10 10 10 10 10 10 10 11 11 12 13 13 13 14 14 15 16 16 17 17 18 19 19 19 20 21 22 22 23 24 24 25 25 26 27 27
14 14 14 13 13 12 12 11 11 11 12 11 11 11 12 12 13 13 14 14 15 15 16 16 16 17 17 18 19 20 21 21 22 22 23 23 24 25 25 26 27 27 28
16 16 16 14 13 14 14 13 13 13 13 13 13 13 13 14 14 13 14 14 14 14 15 16 16 17 17 18 19 21 22 22 23 23 24 24 24 25 26 26 28 28 28
17 16 16 15 15 15 14 14 14 14 14 14 14 14 14 15 14 14 14 14 14 15 16 16 17 18 18 19 20 20 21 21 23 23 24 24 25 25 26 27 28 28 28
18 17 16 16 16 16 16 16 16 16 16 15 15 15 15 15 16 16 15 15 16 17 17 17 18 19 20 20 21 21 21 22 23 23 24 25 25 25 26 26 27 28 29
20 18 18 18 18 17 17 17 17 17 17 17 17 17 17 17 17 17 17 17 17 18 18 19 19 19 20 20 21 22 22 23 23 24 25 26 26 27 26 27 28 28 29
21 20 20 19 19 19 18 18 18 18 17 17 18 18 18 19 18 18 18 19 19 19 19 19 20 20 21 22 22 22 23 24 25 25 25 26 26 27 27 28 28 28 29
23 23 22 22 20 20 20 20 20 19 19 19 19 20 20 20 19 20 20 20 20 20 20 20 21 21 22 22 22 23 24 25 26 26 26 26 27 27 27 28 29 29 30
26 25 25 24 22 22 22 21 21 21 20 20 21 21 21 21 22 22 21 22 22 22 22 22 22 23 23 23 24 24 24 25 26 27 27 27 27 27 27 28 28 29 29
28 28 27 25 23 22 22 22 21 21 21 21 22 22 22 23 23 23 23 23 23 23 24 24 24 24 23 24 24 25 25 25 26 26 26 26 26 27 28 28 28 29 30
28 27 27 26 25 25 24 24 23 23 23 23 23 24 24 24 23 24 24 24 24 24 24 24 24 24 25 25 25 26 25 25 25 25 26 27 27 27 28 29 29 30 31
30 29 28 27 27 26 26 25 25 25 25 25 25 25 25 24 25 25 24 24 24 24 24 24 25 26 26 26 26 26 26 26 27 26 26 27 27 28 29 30 31 32 32

GEFSMW_500_meanwind_144.txt.gz
Wind_Speed
13 13 14 13 12 11 10 10 8 8 6 4 4 5 6 6 7 9 9 10 10 10 10 9 9 9 9 9 9 9 8 8 8 7 7 7 7 8 8 9 9 9 9
13 13 13 13 12 11 10 10 9 8 7 5 4 4 5 5 7 8 9 10 11 11 11 11 10 10 10 10 10 10 10 9 9 9 9 8 9 9 9 10 10 10 11
13 14 14 14 13 12 10 9 8 7 6 6 5 4 5 5 5 7 9 10 11 12 12 11 11 10 10 10 11 11 10 10 10 10 10 9 10 10 11 11 11 11 12
13 14 14 14 13 12 10 9 7 6 6 6 5 5 5 6 6 7 7 10 11 12 12 12 12 11 11 11 11 12 12 12 12 11 11 11 11 12 12 12 12 12 12
12 13 14 13 11 11 10 8 7 7 7 6 6 7 7 6 7 8 8 8 11 12 12 13 13 13 13 12 12 13 13 13 13 13 13 13 13 13 13 13 13 13 14
12 13 13 12 11 11 10 8 7 7 8 8 8 8 8 7 8 8 9 9 10 12 13 14 14 14 14 13 13 13 14 14 15 15 15 15 15 15 15 15 15 16 16
11 12 13 12 12 12 11 9 8 8 9 9 9 8 8 8 8 8 9 10 10 11 12 14 14 15 15 15 15 14 14 15 16 16 17 17 17 17 17 18 18 18 18
11 12 13 13 12 11 10 8 7 7 8 9 9 9 10 9 9 10 10 11 11 12 13 13 14 15 16 16 17 16 16 16 17 18 19 19 19 19 19 19 19 20 20
10 12 12 13 12 11 9 8 8 8 8 9 9 10 9 9 10 10 11 11 12 12 13 14 15 15 15 16 18 18 19 18 18 18 19 20 20 20 20 20 21 21 22
10 11 11 12 10 9 9 8 7 8 9 9 9 9 10 10 10 10 11 12 12 12 13 14 15 16 17 17 17 17 18 19 19 19 19 20 21 22 22 23 23 23 24
10 10 11 10 10 8 8 8 7 8 9 9 9 9 9 10 10 11 12 12 13 13 14 15 14 15 16 17 17 19 19 19 20 20 20 21 21 23 24 24 24 25 25
10 11 11 10 9 8 8 8 8 9 9 9 9 9 9 10 11 12 13 13 14 14 14 15 15 16 16 16 17 18 19 19 20 21 21 22 22 22 23 23 24 25 26
10 11 12 10 10 9 9 9 9 9 10 10 10 10 10 10 11 12 13 14 14 15 15 15 16 15 15 16 17 17 19 19 20 21 22 22 23 23 23 23 24 25 25
11 11 11 11 11 10 10 10 10 10 10 10 10 10 10 10 11 12 13 14 15 15 15 15 15 16 16 17 17 18 19 19 20 20 22 22 23 23 23 24 24 24 25
10 11 12 12 12 11 11 11 10 10 10 10 10 11 11 12 12 13 13 14 15 16 16 16 16 16 17 18 18 19 19 19 20 21 22 23 23 22 23 24 24 25 25
11 12 12 12 13 12 12 11 11 11 11 11 11 12 12 13 13 13 14 15 15 16 16 16 16 17 18 19 19 20 19 20 21 22 22 22 22 23 24 24 25 25 26
14 14 13 14 14 14 13 13 12 12 13 13 13 13 13 14 14 14 14 15 15 15 16 16 17 17 18 19 20 20 20 21 21 21 22 22 23 24 24 24 25 26 27
16 16 15 15 15 15 14 14 13 14 14 14 15 14 14 15 15 15 16 16 16 16 17 17 18 19 19 19 20 20 21 21 21 22 23 23 24 24 24 24 25 26 27
17 18 17 16 16 16 16 15 15 15 16 16 16 16 16 16 16 16 17 17 17 17 17 18 19 19 20 20 20 20 21 21 22 23 24 24 25 24 25 25 25 26 26
19 19 19 18 17 17 17 17 17 17 17 18 18 18 18 18 18 18 18 18 18 18 18 18 19 20 20 20 21 21 22 23 23 23 24 24 24 24 25 26 26 27 27
20 20 20 20 20 20 20 20 19 19 20 20 21 21 20 20 20 20 20 20 19 20 20 20 20 21 21 22 22 22 23 24 24 25 25 25 25 26 27 27 27 27 27
23 23 23 22 22 22 22 22 22 22 22 22 23 22 22 22 22 22 22 21 22 22 22 22 22 22 23 23 24 24 24 25 25 26 26 26 26 27 27 27 27 27 28
25 25 25 24 24 24 24 24 24 24 24 24 24 24 24 24 23 23 23 23 23 24 24 24 24 24 24 24 25 25 25 26 26 26 26 26 26 27 27 27 27 27 28
27 27 27 27 26 26 26 26 26 26 26 26 25 25 25 25 24 24 24 25 25 25 25 26 26 26 25 25 25 26 26 26 26 26 27 27 27 27 26 26 26 27 28
29 29 30 29 29 29 28 28 28 28 28 27 27 27 27 27 26 26 26 26 27 27 27 27 28 28 27 27 27 27 27 27 27 28 28 28 27 26 26 26 27 28 30
31 31 31 31 31 31 30 31 31 31 29 28 28 28 28 28 28 28 28 28 28 28 28 28 28 28 28 28 28 28 28 28 28 28 28 27 27 27 27 27 28 29 30

GEFSMW_500_meanwind_150.txt.gz
Wind_Speed
17 17 17 17 16 15 15 13 11 11 9 8 7 4 5 5 4 5 6 8 9 9 9 8 8 7 7 7 8 9 9 9 8 8 8 8 8 8 8 8 8 8 8
16 16 17 17 17 16 15 13 12 11 9 8 7 6 5 5 5 6 6 7 9 10 10 10 10 9 9 8 9 10 10 9 9 9 9 9 9 8 9 9 10 10 10
16 16 17 18 17 16 14 13 12 10 9 8 7 6 6 6 6 6 7 7 8 9 10 10 10 10 9 9 10 10 10 10 10 11 11 10 10 10 10 10 10 11 11
16 16 17 17 16 15 14 13 11 10 9 8 7 7 7 7 6 6 6 7 8 8 9 10 10 10 10 10 10 10 11 11 11 11 12 12 12 12 11 11 11 11 12
16 16 17 17 16 15 14 13 12 11 10 10 9 8 7 7 7 7 7 8 9 9 10 10 10 11 11 11 11 11 11 12 12 12 13 14 14 14 13 13 13 13 13
17 16 16 16 16 15 14 13 12 11 10 10 9 8 8 8 8 8 8 9 9 10 11 11 11 12 12 12 12 12 13 13 14 14 14 15 15 15 15 15 15 15 16
16 15 15 15 15 15 14 14 13 12 10 10 10 9 9 9 9 8 8 9 9 10 10 11 12 13 14 14 14 15 15 15 15 15 16 16 16 17 17 17 17 17 18
15 14 14 15 15 15 14 14 13 12 11 10 10 10 10 10 10 10 10 10 9 10 10 11 12 13 14 14 15 15 16 16 17 17 17 17 17 18 19 19 18 19 19
15 14 14 15 15 15 15 14 12 11 10 10 10 11 11 11 12 11 11 11 10 11 11 11 12 13 14 15 16 17 17 17 17 18 18 19 19 19 19 19 19 20 20
15 15 14 14 15 15 15 14 12 11 10 10 11 11 11 11 12 12 11 11 11 11 11 12 13 13 14 16 17 18 18 18 17 18 18 18 19 20 20 21 21 21 22
15 14 15 15 16 16 15 13 13 12 11 12 12 12 12 12 12 11 11 11 10 11 12 13 13 14 15 15 15 16 17 17 17 17 17 18 19 20 20 21 21 23 24
15 15 15 15 16 16 14 14 13 13 13 13 13 13 12 12 12 11 11 11 11 11 12 12 13 14 15 15 16 16 16 16 17 17 18 19 20 20 21 22 23 24 25
15 14 14 15 16 15 14 14 14 14 14 14 13 13 12 12 12 12 12 12 12 13 13 13 14 15 15 15 15 15 15 16 17 17 18 19 20 20 21 22 23 24 24
15 15 14 14 14 15 15 15 15 15 15 14 14 13 13 12 13 13 13 13 14 14 14 14 15 15 16 16 16 16 17 17 18 18 19 19 20 21 22 23 24 25 24
15 15 15 14 14 15 15 16 15 15 15 15 14 14 14 13 14 14 14 15 15 15 15 15 15 16 16 17 17 17 18 18 18 19 20 20 21 22 23 23 24 25 25
16 16 15 15 15 15 15 16 16 16 15 15 15 15 14 14 14 15 15 15 15 16 16 16 16 16 16 16 16 17 18 18 19 19 20 21 21 22 23 23 24 24 25
17 17 16 16 16 16 16 16 16 17 16 16 16 16 16 16 16 16 16 17 17 17 17 17 17 17 17 17 17 18 19 19 19 20 20 20 21 21 22 23 23 24 25
19 18 18 18 18 17 17 17 17 17 17 17 17 18 18 18 18 18 18 18 18 18 18 18 18 18 18 18 19 19 20 20 20 20 20 20 21 22 22 22 23 23 25
20 19 19 19 19 18 18 18 18 18 19 19 19 20 20 20 20 20 20 20 20 19 19 19 19 19 19 19 20 21 21 21 21 21 22 23 23 23 23 24 24 25 26
21 20 20 20 19 19 20 20 20 20 20 20 21 21 21 22 22 22 22 21 21 21 21 20 19 20 20 21 21 21 22 22 22 23 24 24 24 25 25 25 25 25 26
23 22 22 22 21 21 21 21 22 22 22 22 23 23 23 23 23 23 22 22 22 22 22 22 21 21 21 22 22 23 23 23 24 24 25 25 25 25 26 26 27 27 28
26 25 25 24 24 23 23 23 23 24 24 24 24 25 25 25 25 24 23 23 23 24 23 23 23 23 23 23 24 24 25 25 25 25 25 26 26 27 27 27 27 27 28
29 28 27 27 26 26 26 26 27 27 26 26 26 26 26 27 27 26 25 25 25 25 25 25 25 26 26 26 25 26 26 26 26 27 27 27 27 28 29 29 28 28 28
31 30 29 29 29 28 28 29 29 29 29 29 29 29 29 28 28 27 27 27 26 26 26 26 27 27 27 27 27 27 28 28 29 28 28 29 29 29 29 29 29 29 29
33 32 31 31 31 31 31 31 32 32 32 32 31 31 30 30 30 29 29 29 28 28 28 29 28 27 27 27 27 28 29 29 29 29 29 29 29 29 30 29 30 30 30
34 34 34 33 33 33 33 33 34 34 34 34 33 33 32 32 31 31 31 31 30 30 30 30 29 29 28 29 29 29 29 29 29 30 30 29 30 30 30 30 30 30 31

GEFSMW_500_meanwind_156.txt.gz
Wind_Speed
14 14 14 14 14 14 14 12 11 8 8 7 7 6 3 3 2 2 2 2 3 4 6 6 6 6 6 6 6 7 7 7 7 7 7 8 7 8 8 9 9 9 9
15 14 14 14 13 13 13 11 10 7 7 7 7 6 5 3 2 2 3 3 3 5 6 7 7 7 7 7 7 7 7 7 8 8 8 8 9 9 10 10 10 9 10
16 14 14 14 13 13 12 11 9 7 6 6 6 6 6 5 4 3 4 4 4 5 6 7 7 8 8 8 8 8 8 8 9 9 9 10 11 11 11 11 11 11 10
16 15 14 14 12 12 11 10 9 8 6 5 6 6 6 5 5 4 4 4 4 5 6 7 8 8 9 9 10 9 9 9 10 10 11 11 11 11 12 13 12 12 12
16 15 13 12 12 11 10 10 10 8 6 6 6 6 5 5 5 5 5 5 5 6 7 8 9 9 10 11 11 10 11 11 11 12 12 12 13 13 13 14 14 14 14
16 15 13 11 11 11 10 10 9 9 7 6 6 6 5 5 5 5 5 6 6 7 8 9 10 11 11 12 12 12 12 12 13 13 13 14 14 15 15 15 16 16 16
15 15 13 12 12 11 10 9 9 8 8 6 6 6 6 5 5 6 6 7 7 7 8 9 10 11 12 13 13 13 14 14 14 14 15 16 16 16 16 16 16 16 17
14 14 13 12 12 11 11 9 8 8 7 6 6 6 6 6 6 7 7 7 7 8 8 9 9 10 11 12 13 14 15 15 16 16 16 17 17 17 16 17 17 17 17
14 13 13 12 11 11 11 10 9 8 7 6 6 6 6 7 7 7 7 7 8 8 8 8 9 10 10 12 14 15 15 16 17 17 17 17 17 17 17 17 18 18 18
14 14 13 13 12 11 10 10 9 8 7 7 6 6 7 8 8 8 8 8 8 8 8 9 9 10 12 12 13 14 13 14 14 15 16 16 16 16 17 17 17 17 18
14 14 14 13 12 11 10 10 9 9 8 7 7 7 8 8 9 9 9 8 8 8 8 8 9 10 11 11 12 12 12 12 13 14 15 16 16 16 16 17 17 18 19
13 13 13 12 12 11 10 9 9 9 9 9 8 8 9 9 10 10 9 9 9 8 8 8 9 10 11 12 12 12 12 13 14 14 14 15 16 16 17 17 18 18 20
12 12 12 11 11 11 11 10 10 10 9 9 9 9 10 11 11 10 9 9 9 9 8 9 10 11 11 11 12 12 13 13 14 14 15 15 16 16 17 17 18 19 20
13 13 12 12 11 11 11 11 11 10 10 9 9 10 11 11 11 11 10 10 10 10 10 10 11 11 12 12 12 13 13 13 14 14 14 15 16 17 18 18 19 19 20
15 14 13 12 12 12 12 12 11 11 11 10 10 10 11 11 11 10 10 11 11 11 11 11 12 12 12 12 12 13 13 14 14 14 15 15 16 17 18 19 19 20 21
16 15 15 14 13 13 13 12 12 11 11 11 11 11 11 11 11 11 12 12 12 12 12 12 12 13 13 13 13 13 14 14 14 14 14 15 16 17 18 20 20 21 22
18 17 17 16 15 14 14 14 14 13 13 13 13 13 13 13 13 13 13 13 13 13 13 13 14 14 14 14 14 15 15 15 15 15 15 16 17 17 19 20 21 22 22
21 20 19 18 17 16 15 16 16 15 14 14 14 15 15 15 15 15 15 15 15 15 15 15 15 15 15 15 16 16 17 17 17 17 17 18 18 19 20 21 21 21 22
22 22 21 19 19 18 17 17 17 16 16 16 15 16 16 16 17 17 17 16 16 16 16 17 16 16 16 16 16 16 17 17 18 19 19 19 20 21 21 21 21 22 23
25 24 23 21 21 20 19 18 18 19 19 18 18 18 18 18 19 19 19 18 18 18 18 18 18 17 17 17 17 17 17 18 19 20 21 21 21 22 22 22 23 23 24
27 25 24 23 22 21 21 20 20 21 21 21 21 21 21 21 21 21 20 20 20 20 20 20 19 20 19 19 19 19 19 20 20 21 21 22 22 23 23 23 24 24 25
29 27 25 25 25 24 23 22 22 23 23 23 23 23 23 23 23 23 22 22 22 22 22 22 21 21 21 21 21 22 22 22 22 23 23 23 24 24 24 24 25 25 26
30 29 27 27 28 27 26 25 25 26 26 26 26 26 25 25 25 25 25 25 25 25 25 24 24 24 23 23 23 23 24 24 24 24 24 24 25 25 25 26 26 26 27
32 30 29 29 30 30 29 28 29 29 29 28 28 27 27 27 27 27 27 27 27 27 27 26 25 25 25 25 25 25 25 26 26 26 26 26 26 26 27 27 27 27 28
32 31 32 33 33 32 31 31 31 31 31 30 30 29 29 28 28 28 28 29 28 28 28 28 27 27 28 27 27 27 27 27 27 27 27 27 28 28 28 28 28 28 28
36 35 35 36 35 34 34 34 34 34 34 32 31 31 31 30 30 30 30 30 29 30 30 30 30 30 30 30 29 29 29 29 29 28 28 29 29 29 29 29 29 29 30

GEFSMW_500_meanwind_162.txt.gz
Wind_Speed
17 17 17 16 14 12 11 9 8 6 5 5 5 4 4 2 1 1 2 2 3 3 4 4 5 5 5 5 6 7 7 7 7 7 7 8 9 9 9 9 9 10 10
17 16 15 15 13 12 11 10 9 7 5 5 4 4 4 3 2 2 3 3 3 4 5 5 6 6 6 6 7 8 8 8 8 9 9 9 10 10 11 11 11 11 10
16 16 14 14 13 11 11 10 9 7 6 5 4 4 3 3 3 3 3 4 5 5 5 6 7 7 7 8 8 8 9 9 10 10 10 10 11 11 11 12 12 12 12
16 15 14 13 13 11 10 9 8 7 5 5 5 4 4 3 3 4 4 4 5 6 6 7 7 8 9 9 10 10 10 10 10 11 12 12 12 12 13 14 14 14 14
15 14 13 13 13 11 10 9 8 6 5 5 5 5 4 4 4 4 4 5 6 8 8 8 9 10 10 11 11 11 12 12 13 13 13 13 14 14 14 15 15 15 15
14 14 13 12 12 11 10 9 8 7 6 6 5 5 5 5 5 5 5 6 7 8 8 9 10 10 11 12 13 13 14 14 14 14 14 14 15 15 15 15 15 16 17
13 14 13 12 11 11 10 9 9 8 7 6 5 6 6 5 5 5 6 6 6 7 8 9 10 11 11 12 13 14 14 15 15 15 15 15 15 16 17 17 17 18 19
13 13 13 12 12 11 10 9 9 8 7 6 6 6 6 6 6 5 5 6 7 8 8 9 10 11 11 13 13 14 14 15 15 16 17 17 17 18 18 18 19 19 20
13 13 13 12 11 11 11 10 9 8 7 7 7 6 7 6 6 5 5 6 7 8 9 10 10 10 11 12 13 13 13 14 15 16 16 17 18 18 18 19 19 19 19
12 12 12 12 12 12 11 10 9 8 8 8 7 7 7 7 6 6 7 7 8 8 8 9 9 10 10 11 12 12 12 13 14 15 16 16 17 17 17 17 17 18 19
11 12 12 12 12 12 12 10 9 9 9 8 8 8 7 7 7 8 8 8 8 9 9 9 10 10 11 11 11 12 13 13 14 16 16 16 16 17 17 18 18 18 19
11 11 12 12 12 12 12 11 10 9 9 9 9 8 8 8 8 9 9 9 10 10 10 10 10 11 11 11 11 12 12 13 14 15 15 16 17 17 18 18 18 19 19
11 11 11 12 13 12 12 11 10 10 10 9 9 9 9 9 9 10 10 10 11 11 11 11 11 12 12 12 12 12 13 13 14 15 15 16 17 18 18 18 18 19 19
11 12 12 13 13 12 12 12 11 11 10 10 10 10 10 10 10 10 11 12 12 12 12 12 12 13 13 13 13 13 14 14 15 15 16 16 16 16 17 17 18 19 20
12 13 13 13 14 13 12 12 12 12 12 11 11 11 11 11 12 12 12 12 13 13 13 13 13 13 14 14 15 15 16 17 16 16 17 17 17 17 17 18 19 20 21
14 14 15 15 15 14 13 13 13 13 13 13 12 13 13 13 13 13 13 13 14 13 13 13 14 15 15 15 16 16 16 17 17 18 18 18 18 18 19 19 20 21 21
17 17 17 16 16 15 15 15 15 14 15 14 14 14 14 14 14 14 14 14 14 15 15 15 15 15 16 16 17 17 17 18 19 19 19 19 19 20 20 21 21 22 22
19 19 19 18 17 17 16 17 16 16 17 16 15 16 15 14 15 15 15 16 15 16 17 17 17 17 17 17 18 18 18 19 19 19 20 20 20 21 22 22 23 24 24
21 21 21 20 19 19 19 19 19 19 19 17 16 17 16 15 16 16 16 16 17 18 18 18 18 18 18 18 19 19 19 19 19 20 20 21 21 22 23 23 24 24 25
23 24 23 22 22 21 21 21 21 21 21 20 18 18 17 17 17 18 18 18 18 19 19 19 19 20 20 20 20 20 20 20 20 21 21 22 23 23 24 24 25 25 26
27 26 26 26 25 24 24 24 24 23 22 22 20 19 20 20 20 20 20 20 20 20 20 21 21 21 22 21 21 21 22 22 22 22 23 24 24 24 25 26 26 26 27
29 29 29 29 28 28 28 27 27 27 26 25 24 23 23 23 23 23 23 23 23 23 23 23 23 23 23 23 24 24 24 23 24 24 25 26 26 27 27 28 28 28 28
32 31 32 32 31 31 30 30 30 30 29 28 28 27 26 26 26 27 27 26 26 26 25 25 25 25 25 25 25 25 26 26 26 27 27 27 28 29 30 30 30 30 31
35 34 34 33 33 33 32 33 33 33 32 32 31 30 30 29 29 29 29 29 28 28 27 27 27 27 27 27 28 28 28 28 29 29 29 30 30 31 31 31 31 31 32
38 37 37 36 36 36 35 35 35 35 35 35 34 33 33 32 31 31 31 31 31 30 30 29 29 29 29 30 30 30 30 30 30 31 31 31 31 31 32 32 32 32 32
40 39 38 38 38 38 37 37 37 37 36 36 35 34 33 33 33 32 32 32 32 31 31 31 31 30 30 30 30 31 32 32 31 31 32 32 32 32 32 32 33 33 33

GEFSMW_500_meanwind_168.txt.gz
Wind_Speed
15 14 14 14 13 12 11 11 10 7 6 5 3 2 1 0 1 1 2 2 3 3 3 4 5 5 5 6 6 6 6 7 7 7 7 7 8 8 8 9 9 9 9
15 15 14 14 13 12 12 11 10 8 6 4 4 2 2 1 1 1 1 2 3 4 4 4 5 6 6 7 8 8 8 8 9 8 8 8 9 10 10 10 11 11 12
14 14 14 14 13 12 11 11 10 8 6 5 4 3 3 2 2 2 2 3 4 4 4 5 5 7 8 8 8 9 9 9 10 10 10 10 10 11 11 12 12 12 13
13 14 14 13 13 13 11 11 10 8 7 6 5 3 3 3 3 3 3 3 4 4 5 5 6 7 7 8 9 10 10 10 10 11 11 12 12 12 12 13 13 13 14
13 14 14 13 12 12 11 10 10 9 7 6 5 4 3 3 4 4 4 4 4 5 6 6 7 8 8 9 10 11 11 11 12 12 12 13 13 13 14 14 15 15 14
12 13 13 12 12 12 11 10 10 9 8 6 5 4 4 4 5 5 5 5 5 5 6 7 8 9 9 10 10 10 11 12 13 13 14 15 15 15 15 15 16 16 16
12 13 13 12 12 11 10 10 10 9 8 7 5 5 5 5 6 6 6 6 6 6 7 7 8 9 9 10 10 11 11 12 12 13 14 14 15 16 16 16 17 18 18
11 12 12 11 11 11 10 10 10 9 8 8 6 6 6 6 6 7 7 7 7 7 8 8 8 9 10 11 11 12 12 12 12 12 13 15 15 16 16 17 18 18 18
10 11 12 11 11 10 10 10 9 9 8 8 7 7 7 6 7 7 8 8 7 8 9 9 10 10 10 11 12 12 13 13 13 13 13 14 15 16 17 17 18 17 17
11 11 11 10 10 10 10 10 9 9 9 8 8 8 7 7 7 7 7 7 7 8 8 9 10 10 10 11 12 12 13 14 14 14 15 15 16 16 17 17 17 17 17
11 11 10 10 10 10 9 9 9 9 9 9 9 8 8 8 8 8 8 8 9 9 9 10 10 10 11 11 11 12 13 14 14 14 15 16 16 17 16 17 17 17 17
10 11 10 10 10 10 10 9 9 9 9 9 9 9 9 9 9 9 10 10 10 10 10 10 11 11 11 11 12 13 14 14 14 14 14 15 15 15 16 16 17 17 18
12 11 11 10 10 10 10 10 10 10 10 10 9 9 10 10 10 11 11 11 11 11 11 11 12 12 12 12 13 13 14 14 14 15 15 16 16 16 16 16 17 18 18
12 12 11 11 11 11 11 11 11 10 11 11 10 10 11 11 11 12 13 13 12 12 12 12 13 13 13 13 13 13 14 14 15 15 16 16 16 17 17 17 17 18 18
13 13 12 12 12 12 12 12 12 12 12 13 13 13 12 13 13 13 13 13 13 13 13 14 14 14 14 14 14 14 15 15 16 16 17 17 17 18 18 19 19 19 20
15 15 14 14 14 14 14 14 13 14 14 15 14 14 14 15 15 15 15 15 15 15 15 15 16 16 16 15 15 16 16 17 16 17 18 18 19 19 20 20 20 21 21
17 16 17 17 17 17 17 16 16 16 16 16 16 16 16 17 16 16 17 16 16 16 17 17 17 18 17 17 16 17 18 18 18 18 18 19 19 20 21 21 22 22 22
19 18 19 19 20 19 18 18 18 18 18 18 18 18 18 19 18 18 18 19 18 18 18 18 18 19 19 18 18 18 19 18 19 19 20 20 20 21 21 21 22 22 22
22 22 22 22 22 22 20 20 19 19 20 19 19 20 20 20 20 20 20 19 19 20 20 20 21 21 20 20 20 20 20 20 20 20 21 21 21 22 23 23 23 23 24
24 25 25 25 25 25 24 23 22 22 22 22 22 22 22 22 22 22 22 22 22 22 22 22 22 23 23 22 22 22 22 22 22 22 22 23 24 24 24 24 25 25 26
27 27 28 28 28 28 27 25 25 25 25 25 25 25 24 24 24 24 24 24 25 24 24 24 24 24 25 25 24 24 23 24 24 24 24 25 25 26 26 27 27 28 28
30 30 30 30 31 31 30 29 29 28 28 28 29 28 27 27 27 26 26 26 27 27 27 27 27 27 27 26 26 25 25 25 26 26 27 27 27 28 28 29 30 30 30
32 32 33 33 33 32 32 32 32 32 31 31 30 30 30 29 29 29 29 29 29 30 30 30 29 29 29 29 29 28 27 27 27 28 29 29 29 30 31 31 31 31 31
34 34 34 34 34 34 34 34 35 34 33 33 32 32 32 32 32 32 31 32 32 31 31 31 31 31 31 30 30 30 30 30 29 29 30 30 31 31 32 31 31 31 31
35 36 36 35 36 36 36 35 35 35 35 34 35 35 35 35 34 34 34 34 34 34 32 32 32 32 32 32 32 31 32 32 32 32 32 32 32 32 32 32 32 32 32
36 37 37 37 37 37 36 35 35 37 37 37 37 37 37 37 37 36 36 36 36 34 35 35 34 33 33 33 33 33 33 34 34 34 34 34 33 33 33 33 33 33 33

GEFSMW_500_meanwind_174.txt.gz
Wind_Speed
18 19 18 18 17 16 16 15 12 11 11 10 8 9 7 5 4 3 2 2 2 2 3 3 3 4 5 5 5 5 5 5 6 6 7 8 8 8 8 8 9 9 9
17 18 19 18 18 17 16 15 13 12 11 10 9 8 7 5 4 4 3 2 2 3 3 4 3 4 5 5 6 6 6 7 7 8 8 9 9 10 9 10 10 10 11
16 17 18 18 18 17 16 15 13 12 11 10 9 8 7 6 5 5 4 4 3 3 3 4 4 5 5 6 6 7 7 8 8 9 9 9 10 10 11 11 11 12 12
16 16 17 17 17 16 15 14 13 12 11 10 9 8 7 6 6 5 5 5 4 4 4 4 5 6 6 6 6 7 8 8 9 9 9 10 10 11 11 12 12 13 13
15 15 16 16 16 15 15 14 13 12 12 11 9 8 8 7 6 6 6 6 5 5 5 5 6 6 7 7 7 8 9 9 10 10 10 10 11 12 12 12 13 13 14
14 14 15 15 15 15 14 14 13 12 11 11 10 9 8 7 7 7 7 7 6 6 6 6 7 7 8 8 8 9 9 10 10 11 11 12 12 13 14 14 14 14 15
12 13 13 14 14 14 14 14 13 12 12 11 10 9 9 7 7 8 7 7 7 6 6 7 7 8 8 9 9 10 11 11 11 12 12 13 13 14 14 14 14 14 15
12 12 13 13 14 14 13 13 13 13 12 11 10 10 9 8 8 8 8 8 8 8 8 9 8 8 9 10 10 11 11 12 12 13 13 13 14 14 14 14 14 14 15
12 11 12 12 13 13 13 13 13 13 13 11 11 10 10 9 9 9 9 9 9 9 10 10 9 10 10 10 10 10 11 12 13 13 13 13 14 15 15 15 15 15 15
12 11 11 12 12 12 12 13 13 13 13 12 11 11 10 10 10 10 10 10 10 10 11 11 10 10 10 10 10 10 11 12 13 13 14 14 15 15 15 15 15 15 16
12 12 12 12 12 12 12 12 12 12 13 13 12 11 11 11 11 11 10 11 11 11 11 11 12 12 12 11 11 11 11 12 13 13 13 13 14 15 15 15 15 15 15
13 14 13 13 12 12 12 12 12 12 12 13 13 12 12 12 12 11 11 12 12 12 12 12 13 13 13 12 12 13 13 13 13 13 13 14 14 15 14 15 15 15 16
16 16 14 12 13 12 12 12 13 13 13 13 13 13 13 13 12 12 12 13 13 13 13 13 13 13 13 13 13 14 14 14 14 15 15 15 15 15 15 16 16 17 17
17 18 15 14 14 13 14 13 13 14 15 14 15 15 15 14 14 14 14 14 14 14 15 15 15 15 15 14 14 15 15 15 16 16 16 16 16 16 16 17 18 18 19
19 19 16 16 15 15 15 15 16 16 16 16 16 16 16 16 16 15 16 16 16 16 16 16 17 16 16 16 16 16 16 17 17 17 17 17 17 17 18 19 19 20 20
21 19 18 18 17 17 17 16 17 17 17 18 17 17 17 18 18 17 17 18 18 18 17 18 18 18 17 17 17 17 18 18 18 18 19 19 19 19 19 20 21 21 22
22 21 20 19 18 18 18 18 18 18 18 18 19 19 18 19 19 19 19 19 19 19 19 19 19 19 18 18 19 19 19 20 20 20 20 20 20 20 21 21 22 22 23
24 23 23 22 22 21 21 21 21 20 21 21 21 21 21 21 21 21 21 21 21 20 20 20 21 21 20 20 20 20 21 21 21 21 22 22 22 22 22 23 23 24 24
27 26 25 25 24 24 23 23 23 23 23 23 24 23 23 23 23 23 23 23 23 23 22 22 22 23 23 23 23 23 24 24 24 24 23 23 24 24 24 25 25 25 25
28 28 27 27 27 27 27 26 26 27 26 26 27 27 26 25 25 25 25 24 24 24 24 24 24 24 24 25 25 26 26 26 26 26 26 25 26 26 27 27 26 26 26
29 29 29 29 29 29 30 30 29 29 29 30 30 29 28 27 27 26 25 25 26 26 27 27 26 26 26 27 27 28 28 28 27 27 27 27 27 28 28 28 28 28 28
31 31 31 31 31 32 32 32 32 32 32 32 32 31 30 29 28 28 28 28 27 28 29 29 29 29 29 29 29 29 29 29 29 29 29 29 29 29 30 30 30 30 30
33 33 33 34 34 34 34 35 35 35 34 34 34 33 32 31 31 30 30 30 31 31 31 30 30 30 29 31 31 30 30 30 31 31 30 30 30 31 32 32 32 32 32
34 34 35 35 35 35 35 35 36 36 36 35 35 34 34 33 33 34 34 33 33 33 33 32 32 31 31 32 32 32 32 32 32 32 32 32 32 33 33 33 33 33 33
36 36 36 37 37 36 37 37 37 37 37 37 37 37 36 36 36 36 36 35 35 35 35 35 34 35 34 34 33 33 34 35 35 35 34 34 34 34 34 34 34 34 34
38 38 38 39 38 38 38 39 39 39 38 38 38 38 38 38 38 38 36 36 37 37 37 36 37 37 37 37 37 37 37 36 36 35 35 35 35 35 35 35 35 34 34

GEFSMW_500_meanwind_180.txt.gz
Wind_Speed
18 18 18 17 16 16 15 14 13 12 11 10 9 9 8 6 5 4 2 2 2 3 3 3 3 3 3 4 4 5 5 5 5 6 6 7 7 8 9 9 9 9 10
17 17 17 16 16 15 14 13 13 12 11 10 10 9 8 7 6 4 3 2 2 2 2 2 2 3 3 4 4 5 5 6 7 7 7 8 8 9 10 10 11 11 11
16 16 16 15 15 15 14 14 13 11 10 10 10 10 8 6 6 5 4 3 2 1 1 2 2 3 3 3 4 5 6 7 7 7 7 8 8 9 10 10 11 12 12
14 15 15 14 14 14 14 14 12 11 10 10 10 10 8 6 5 5 4 3 2 1 0 2 2 3 3 3 4 5 6 7 7 7 8 8 8 9 10 11 11 11 12
13 14 14 13 12 12 13 13 12 11 10 9 9 9 8 7 6 5 4 4 3 2 2 2 3 3 4 4 5 6 7 7 7 8 8 8 9 9 10 11 12 12 12
12 12 13 12 11 11 12 12 12 11 11 9 9 8 7 7 5 5 4 3 4 3 3 3 3 4 5 5 5 6 7 8 9 9 9 9 10 10 10 11 12 12 13
11 11 11 10 10 10 10 11 11 11 10 9 8 8 7 6 5 5 5 4 4 4 5 4 4 5 5 6 6 7 8 9 9 9 10 10 10 11 12 12 12 13 14
10 10 9 9 9 9 9 10 10 10 10 10 9 8 7 6 6 6 5 5 5 5 6 6 6 6 7 7 8 9 9 10 10 10 11 11 12 12 12 13 13 14 14
11 10 9 9 9 9 9 10 10 10 10 10 9 8 8 7 7 6 6 6 6 6 6 7 7 7 7 8 8 9 10 10 10 10 11 12 13 13 13 13 13 14 14
11 10 10 10 9 9 9 9 9 10 10 9 8 8 8 8 7 7 7 7 7 8 8 7 8 8 8 9 9 10 10 10 10 10 10 11 12 13 13 13 13 14 14
11 12 12 11 11 10 9 9 9 10 10 9 9 8 8 8 8 8 9 8 8 8 8 8 8 8 9 10 10 10 10 11 11 11 12 11 12 12 13 13 13 13 14
14 13 12 12 12 11 11 11 9 9 9 9 9 9 8 9 9 9 9 9 9 8 9 9 9 9 10 11 12 12 11 11 11 12 12 13 13 13 13 14 15 15 15
15 15 14 13 13 12 12 12 11 10 10 9 10 9 9 9 10 10 10 10 10 10 10 10 10 11 11 12 12 11 11 11 11 12 12 13 14 14 14 15 15 16 16
17 16 15 15 14 14 14 14 12 11 11 10 10 11 10 11 11 11 12 12 12 11 11 11 12 12 12 12 12 12 11 11 12 13 14 14 15 15 15 16 16 17 18
21 20 18 17 16 16 16 16 15 14 13 12 12 12 12 13 13 14 14 15 14 13 13 13 13 12 13 13 13 13 13 13 13 14 15 16 16 17 17 17 18 19 19
23 23 22 21 19 18 18 17 17 15 15 14 14 14 14 15 16 16 16 16 16 15 15 15 15 15 15 15 14 14 14 15 16 16 16 17 17 18 18 19 20 20 20
25 25 25 24 23 22 21 20 18 18 17 17 17 16 17 17 18 18 18 19 18 17 17 17 17 17 17 17 17 17 17 18 18 17 17 18 19 19 19 19 20 20 20
29 29 29 29 27 25 24 23 21 20 20 19 19 19 20 20 20 21 20 21 20 20 20 19 19 19 19 19 19 20 20 21 21 21 20 20 20 20 21 21 21 21 22
32 32 32 31 30 28 26 25 23 22 22 21 21 21 22 22 23 23 22 22 22 22 21 20 20 21 21 22 21 21 22 23 24 23 23 23 22 22 23 23 23 23 24
34 33 33 32 31 29 26 25 26 26 25 23 23 23 23 24 24 24 24 24 23 23 23 22 22 22 23 23 23 24 24 25 24 25 25 24 24 24 24 25 25 25 25
36 35 32 31 30 29 28 27 27 27 27 26 26 26 26 26 25 26 26 25 25 25 24 24 24 25 25 25 26 27 27 27 27 27 26 26 26 26 26 26 26 27 28
37 37 35 33 32 31 30 29 30 29 29 29 29 28 28 28 28 28 28 29 29 29 28 28 28 27 27 28 28 29 29 29 29 28 28 28 28 28 28 28 28 28 29
38 38 37 35 34 33 32 33 33 31 31 32 30 30 30 30 30 31 31 32 32 32 32 29 29 29 29 29 30 30 31 31 30 30 30 30 31 31 30 30 30 30 30
39 37 37 36 35 35 35 34 33 32 33 34 32 32 32 33 33 33 33 33 33 33 33 32 32 31 31 31 31 32 32 32 32 32 32 32 32 33 32 32 31 31 31
37 37 37 37 36 35 36 36 36 35 35 35 35 35 35 35 35 35 35 35 34 35 34 33 33 32 33 33 33 34 34 34 34 34 34 34 35 35 34 34 33 33 33
38 38 38 38 39 39 38 38 37 38 37 37 38 38 38 37 38 37 36 35 35 35 34 33 34 34 34 35 35 35 35 35 36 36 36 36 36 36 36 36 35 35 35

GEFSMW_500_meanwind_186.txt.gz
Wind_Speed
15 16 16 16 15 15 15 14 13 12 11 10 10 9 7 6 4 4 3 1 0 1 2 2 2 2 3 4 5 6 6 6 6 7 7 8 8 9 9 9 10 10 10
13 14 15 15 14 14 14 14 13 12 11 10 9 9 8 7 5 4 3 2 1 2 3 3 2 2 3 4 5 5 6 7 7 8 8 8 9 10 10 11 11 11 12
12 13 13 13 13 13 12 12 12 11 11 10 9 9 8 7 5 5 4 3 2 1 2 3 3 3 4 5 6 6 7 7 8 8 9 10 10 11 12 11 11 12 12
10 11 12 12 12 12 11 12 11 11 11 10 9 9 8 7 6 5 4 4 3 3 3 3 4 5 5 5 6 7 7 8 8 9 9 10 10 11 12 12 12 12 13
9 10 10 10 11 11 10 11 11 10 10 10 9 9 8 7 6 5 4 4 4 4 4 4 4 5 6 6 7 8 8 9 9 10 10 11 11 12 12 13 13 13 13
8 9 9 9 9 9 9 9 9 9 9 9 9 9 8 8 7 7 5 4 4 4 4 5 5 6 7 7 8 9 9 10 11 11 12 12 12 12 13 14 14 14 15
8 8 9 8 9 9 8 9 9 9 9 9 9 9 8 8 8 7 7 6 6 6 6 6 7 7 7 8 9 10 10 11 12 13 13 14 14 14 14 15 15 16 16
8 8 8 9 8 8 8 8 9 9 9 9 9 9 8 8 8 8 8 8 8 8 7 7 8 8 8 9 9 10 10 11 12 13 14 15 15 15 15 16 16 17 18
9 9 9 9 8 8 7 7 8 9 9 9 9 9 9 9 9 9 9 9 9 8 8 8 9 9 9 9 10 10 11 12 13 14 15 15 15 15 16 16 17 17 18
11 10 10 10 9 8 8 8 8 9 9 10 10 10 9 9 10 10 9 10 9 9 9 9 9 9 10 10 10 11 12 12 13 14 15 16 16 16 16 16 17 17 18
13 12 11 10 10 10 9 9 9 9 10 10 10 10 10 10 10 10 10 10 10 10 10 10 9 10 10 11 11 12 12 12 13 14 14 14 14 14 15 15 16 17 18
13 13 11 11 11 11 10 10 10 10 11 11 11 11 11 11 11 11 11 11 11 12 12 12 11 11 11 12 12 12 13 13 14 14 14 14 15 16 16 17 17 18 18
15 15 14 13 12 11 11 11 11 11 12 12 12 13 13 13 13 13 13 13 13 13 13 13 13 13 12 13 13 14 14 14 14 15 15 16 16 17 17 17 18 18 19
18 18 17 15 14 13 13 13 13 13 13 14 14 15 15 15 15 15 14 14 15 15 15 15 15 15 14 14 15 15 15 15 15 15 15 16 17 18 19 19 19 19 20
21 21 20 18 17 16 16 16 16 17 16 16 16 16 17 17 17 17 17 17 17 17 17 17 17 17 17 16 17 16 16 16 16 16 17 17 18 19 20 20 20 21 21
24 24 23 22 20 19 18 19 19 18 19 19 18 18 19 20 20 20 20 19 19 19 20 20 19 18 19 19 19 19 18 18 18 18 18 19 20 21 21 21 21 22 23
26 25 24 22 22 22 22 22 22 21 21 21 21 21 21 22 22 21 21 22 21 21 20 21 20 20 20 20 20 20 20 20 20 20 21 21 21 22 22 23 23 23 24
28 27 27 26 25 24 24 24 24 24 24 25 25 25 25 24 23 23 23 23 23 22 21 21 20 19 20 20 20 21 22 22 22 22 22 22 23 23 24 24 25 25 26
31 30 28 27 27 26 26 26 26 26 26 26 26 26 27 26 24 24 24 24 24 24 23 22 21 21 21 21 22 22 23 23 24 24 24 24 24 25 25 25 26 26 27
32 32 31 31 29 29 28 28 27 28 28 28 27 28 28 27 26 26 25 25 25 25 25 25 23 23 23 23 24 24 25 25 26 26 26 26 27 27 27 27 28 28 29
34 34 34 33 32 31 30 30 30 30 30 30 30 30 30 29 29 28 27 27 26 26 26 25 25 25 25 26 27 27 27 27 28 28 28 28 29 28 28 29 29 30 30
37 36 36 36 35 34 33 33 33 33 33 32 32 32 31 30 30 30 30 29 28 27 27 27 27 28 28 28 28 29 30 29 30 30 30 30 30 30 30 31 31 31 32
38 38 38 38 38 37 36 36 35 34 34 33 33 34 33 32 33 33 33 32 31 29 29 29 29 29 29 30 30 30 31 31 31 31 31 31 32 33 33 33 33 33 33
40 40 40 40 39 39 39 37 36 36 35 35 35 35 34 35 35 35 35 34 34 33 31 31 31 31 31 31 32 32 31 31 32 32 32 32 32 33 33 33 33 33 34
42 42 40 40 39 39 39 38 36 35 36 36 35 36 36 37 36 35 35 35 35 34 34 33 33 33 33 34 34 34 34 33 34 34 34 34 34 34 35 35 35 35 36
41 42 42 41 40 40 40 38 36 35 36 36 35 35 35 35 35 35 36 36 36 36 36 35 35 35 35 36 36 36 35 35 35 35 35 35 36 36 36 36 37 37 38

GEFSMW_500_meanwind_192.txt.gz
Wind_Speed
12 12 12 11 11 12 12 12 11 10 9 9 9 8 7 6 5 5 4 3 2 1 1 2 2 2 3 4 5 5 5 5 5 5 6 6 6 7 7 8 8 8 9
12 11 11 11 11 11 11 11 10 10 9 9 9 8 7 7 5 4 4 4 2 1 0 1 1 1 2 3 4 4 5 6 7 7 7 7 8 7 8 9 9 10 10
11 11 10 10 10 10 10 10 9 9 9 9 8 8 7 7 6 5 5 4 3 2 1 2 2 2 3 3 4 5 6 6 6 7 7 8 8 9 10 10 10 11 11
10 10 10 10 9 9 9 9 9 9 8 8 8 7 7 7 6 6 5 4 4 4 3 3 3 3 3 4 4 5 6 6 7 7 7 8 9 10 10 11 11 11 11
9 9 10 10 9 9 9 9 9 8 8 8 8 8 7 6 7 7 6 5 4 4 4 4 4 3 4 4 5 6 6 7 7 7 8 8 9 10 11 11 12 12 12
9 9 9 9 8 9 8 8 8 8 8 8 8 7 7 7 6 6 6 6 6 5 5 5 5 5 5 5 6 7 7 8 8 8 9 9 10 11 11 11 12 13 14
9 10 9 9 8 8 8 8 8 8 7 7 7 7 7 7 7 6 6 6 7 7 6 6 6 6 6 7 7 7 9 9 10 10 10 11 11 12 12 12 13 14 14
10 11 10 9 9 8 8 8 7 7 7 7 7 7 7 7 7 7 7 7 7 7 7 7 7 8 8 8 8 8 8 9 10 10 11 11 12 12 13 13 14 14 15
11 11 11 10 10 9 9 9 8 8 8 8 7 7 8 8 8 8 8 8 8 8 8 8 8 8 9 9 9 9 9 10 10 10 11 12 12 13 14 15 16 16 16
12 11 11 11 10 10 10 10 10 10 9 8 8 8 8 8 9 9 9 10 10 10 10 9 9 10 10 10 11 11 11 11 10 10 11 12 13 14 15 15 16 17 17
15 14 13 13 12 12 12 12 12 11 11 10 9 9 9 9 9 9 10 11 11 12 12 11 11 12 12 12 12 11 12 12 11 11 11 12 13 15 16 16 17 17 17
16 16 16 15 15 15 14 14 13 13 13 12 11 10 10 11 11 10 11 12 13 13 13 13 13 13 13 14 14 13 12 12 12 12 13 13 14 14 15 16 16 16 17
18 18 18 18 17 17 16 15 14 13 13 13 13 12 12 12 13 13 13 14 14 14 15 15 15 15 14 14 14 14 15 15 14 14 14 15 15 15 16 16 16 17 17
20 21 21 21 19 19 18 17 16 15 15 15 14 14 14 14 15 15 16 17 17 17 17 16 17 17 17 16 16 16 16 16 16 16 16 16 16 16 17 17 17 18 18
23 23 23 23 22 21 21 19 18 18 17 17 17 16 17 17 17 18 18 19 19 19 18 18 18 18 18 18 18 17 17 18 18 18 18 17 18 18 18 19 19 20 20
25 25 25 25 24 23 23 22 22 21 21 20 19 20 20 20 20 20 20 21 20 20 20 19 19 19 20 20 19 19 18 18 19 19 20 20 20 20 21 21 21 22 23
28 27 27 27 25 25 25 25 24 24 24 23 22 22 23 23 23 22 22 22 22 23 22 21 21 21 21 22 21 21 21 21 20 21 21 22 22 23 23 24 23 24 25
31 30 29 27 27 27 27 27 26 26 26 25 26 25 25 25 24 24 24 25 25 26 25 24 24 23 23 23 23 23 24 24 24 23 24 25 25 26 26 26 26 26 26
34 33 32 30 29 30 29 29 29 29 28 28 27 27 27 27 27 27 27 27 27 28 26 26 25 25 25 25 25 25 26 26 26 26 26 27 27 28 28 28 27 28 28
34 34 34 33 33 33 33 33 33 32 31 30 29 29 30 30 30 30 30 29 30 29 29 27 26 26 27 27 27 27 27 27 28 28 29 29 29 29 29 29 30 30 30
34 34 35 35 35 35 35 35 35 35 34 34 33 32 33 32 32 32 32 31 30 29 28 28 28 29 28 27 27 28 28 29 30 30 30 31 31 30 30 31 31 31 31
36 37 37 37 37 37 37 37 37 37 36 36 36 36 35 34 35 34 34 34 32 31 30 29 28 29 28 27 28 28 29 30 31 31 31 31 32 31 30 31 31 32 32
38 39 40 40 39 39 39 39 38 38 37 37 38 38 38 37 36 36 35 35 34 32 30 30 29 29 29 29 29 30 30 30 31 32 32 32 32 33 33 33 34 34 35
40 41 41 41 41 41 41 40 40 39 39 40 40 41 40 40 39 37 37 35 35 33 32 30 31 31 31 31 31 31 31 31 32 32 32 33 34 35 35 36 36 36 36
41 42 42 42 42 41 41 41 41 41 42 42 42 42 41 40 40 39 38 37 36 35 34 33 34 34 33 33 33 34 34 34 34 34 34 35 35 36 37 37 37 37 37
39 41 41 42 41 41 41 42 42 42 41 42 42 41 40 40 39 39 39 38 38 37 36 36 36 36 36 36 36 36 36 37 37 37 37 37 37 37 38 39 39 39 39